Time,TemperatureF,DewpointF,PressureIn,WindDirection,WindDirectionDegrees,WindSpeedMPH,WindSpeedGustMPH,Humidity,HourlyPrecipIn,Conditions,Clouds,dailyrainin,SoftwareType,DateUTC
2013-03-30 00:00:00,45.5,32.8,30.04,West,270,0.7,2.5,61,0.00,,,0.00,WUHU21623XXSP,2013-03-30 04:00:00,
2013-03-30 00:05:00,45.3,32.8,30.04,West,270,4.3,4.3,61,0.00,,,0.00,WUHU21623XXSP,2013-03-30 04:05:00,
2013-03-30 00:10:00,45.5,32.8,30.04,WNW,292,1.1,4.3,61,0.00,,,0.00,WUHU21623XXSP,2013-03-30 04:10:00,
2013-03-30 00:15:00,45.3,32.7,30.04,NNW,337,0.0,2.7,61,0.00,,,0.00,WUHU21623XXSP,2013-03-30 04:15:00,
2013-03-30 00:20:00,45.3,32.7,30.04,WNW,292,1.3,2.7,61,0.00,,,0.00,WUHU21623XXSP,2013-03-30 04:20:00,
2013-03-30 00:21:00,45.3,32.7,30.04,WNW,292,1.3,2.7,61,0.00,,,0.00,WUHU21623XXSP,2013-03-30 04:21:00,
2013-03-30 00:25:00,45.1,32.5,30.04,WNW,292,0.0,1.3,61,0.00,,,0.00,WUHU21623XXSP,2013-03-30 04:25:00,
2013-03-30 00:26:00,45.1,32.5,30.04,WNW,292,0.0,1.3,61,0.00,,,0.00,WUHU21623XXSP,2013-03-30 04:26:00,
2013-03-30 00:27:00,45.1,32.5,30.04,WNW,292,0.0,1.3,61,0.00,,,0.00,WUHU21623XXSP,2013-03-30 04:27:00,
2013-03-30 00:30:00,45.1,32.9,30.04,NW,315,0.0,0.0,62,0.00,,,0.00,WUHU21623XXSP,2013-03-30 04:30:00,
2013-03-30 00:31:00,45.1,32.9,30.04,NW,315,0.0,0.0,62,0.00,,,0.00,WUHU21623XXSP,2013-03-30 04:31:00,
2013-03-30 00:32:00,45.1,32.9,30.04,WSW,247,0.0,0.0,62,0.00,,,0.00,WUHU21623XXSP,2013-03-30 04:32:00,
2013-03-30 00:35:00,45.1,32.9,30.04,WSW,247,3.1,3.1,62,0.00,,,0.00,WUHU21623XXSP,2013-03-30 04:35:00,
2013-03-30 00:36:00,45.1,32.9,30.04,NNW,337,4.0,4.0,62,0.00,,,0.00,WUHU21623XXSP,2013-03-30 04:36:00,
2013-03-30 00:37:00,45.1,32.9,30.04,NNW,337,4.0,4.0,62,0.00,,,0.00,WUHU21623XXSP,2013-03-30 04:37:00,
2013-03-30 00:40:00,45.0,32.7,30.04,WNW,292,2.5,4.0,62,0.00,,,0.00,WUHU21623XXSP,2013-03-30 04:40:00,
2013-03-30 00:42:00,45.0,32.7,30.04,West,270,0.9,4.0,62,0.00,,,0.00,WUHU21623XXSP,2013-03-30 04:42:00,
2013-03-30 00:45:00,45.0,32.7,30.04,WNW,292,0.0,4.0,62,0.00,,,0.00,WUHU21623XXSP,2013-03-30 04:45:00,
2013-03-30 00:47:00,45.0,32.7,30.04,WNW,292,0.0,2.5,62,0.00,,,0.00,WUHU21623XXSP,2013-03-30 04:47:00,
2013-03-30 00:51:00,45.0,32.7,30.04,WNW,292,0.0,2.2,62,0.00,,,0.00,WUHU21623XXSP,2013-03-30 04:51:00,
2013-03-30 00:52:00,45.0,32.7,30.04,WSW,247,2.2,2.2,62,0.00,,,0.00,WUHU21623XXSP,2013-03-30 04:52:00,
2013-03-30 00:53:00,45.0,32.7,30.04,WSW,247,2.2,2.2,62,0.00,,,0.00,WUHU21623XXSP,2013-03-30 04:53:00,
2013-03-30 00:56:00,45.0,32.7,30.04,West,270,1.6,2.2,62,0.00,,,0.00,WUHU21623XXSP,2013-03-30 04:56:00,
2013-03-30 00:57:00,45.0,32.7,30.04,West,270,1.6,2.2,62,0.00,,,0.00,WUHU21623XXSP,2013-03-30 04:57:00,
2013-03-30 00:58:00,45.0,32.7,30.04,WNW,292,0.0,2.2,62,0.00,,,0.00,WUHU21623XXSP,2013-03-30 04:58:00,
2013-03-30 01:01:00,45.0,32.7,30.04,WNW,292,0.0,2.2,62,0.00,,,0.00,WUHU21623XXSP,2013-03-30 05:01:00,
2013-03-30 01:02:00,45.0,32.7,30.04,WNW,292,0.0,1.6,62,0.00,,,0.00,WUHU21623XXSP,2013-03-30 05:02:00,
2013-03-30 01:03:00,45.0,32.7,30.04,WNW,292,0.0,1.6,62,0.00,,,0.00,WUHU21623XXSP,2013-03-30 05:03:00,
2013-03-30 01:06:00,44.8,32.6,30.04,WNW,292,1.3,1.3,62,0.00,,,0.00,WUHU21623XXSP,2013-03-30 05:06:00,
2013-03-30 01:07:00,44.8,32.6,30.04,WNW,292,1.3,1.3,62,0.00,,,0.00,WUHU21623XXSP,2013-03-30 05:07:00,
2013-03-30 01:08:00,44.8,32.6,30.04,WNW,292,1.3,1.3,63,0.00,,,0.00,WUHU21623XXSP,2013-03-30 05:08:00,
2013-03-30 01:12:00,45.0,32.9,30.04,WNW,292,1.3,1.3,62,0.00,,,0.00,WUHU21623XXSP,2013-03-30 05:12:00,
2013-03-30 01:13:00,45.0,32.9,30.04,WNW,292,1.3,1.3,62,0.00,,,0.00,WUHU21623XXSP,2013-03-30 05:13:00,
2013-03-30 01:17:00,44.8,32.9,30.04,NNW,337,1.8,2.5,63,0.00,,,0.00,WUHU21623XXSP,2013-03-30 05:17:00,
2013-03-30 01:18:00,44.8,32.9,30.04,NNW,337,1.8,2.5,63,0.00,,,0.00,WUHU21623XXSP,2013-03-30 05:18:00,
2013-03-30 01:19:00,44.8,32.9,30.04,NNW,337,1.8,2.5,63,0.00,,,0.00,WUHU21623XXSP,2013-03-30 05:19:00,
2013-03-30 01:22:00,44.8,32.9,30.04,West,270,2.0,2.5,63,0.00,,,0.00,WUHU21623XXSP,2013-03-30 05:22:00,
2013-03-30 01:23:00,44.8,32.9,30.04,West,270,2.0,2.0,63,0.00,,,0.00,WUHU21623XXSP,2013-03-30 05:23:00,
2013-03-30 01:24:00,44.8,32.9,30.04,WNW,292,1.8,2.0,63,0.00,,,0.00,WUHU21623XXSP,2013-03-30 05:24:00,
2013-03-30 01:26:00,44.8,33.1,30.04,NNE,23,2.7,2.7,63,0.00,,,0.00,WUHU21623XXSP,2013-03-30 05:26:00,
2013-03-30 01:28:00,44.8,32.9,30.04,NNE,22,2.7,2.7,63,0.00,,,0.00,WUHU21623XXSP,2013-03-30 05:28:00,
2013-03-30 01:29:00,44.6,32.9,30.04,West,270,2.0,2.7,63,0.00,,,0.00,WUHU21623XXSP,2013-03-30 05:29:00,
2013-03-30 01:33:00,44.6,32.8,30.04,West,270,1.8,2.7,63,0.00,,,0.00,WUHU21623XXSP,2013-03-30 05:33:00,
2013-03-30 01:34:00,44.6,32.8,30.04,West,270,1.8,2.7,63,0.00,,,0.00,WUHU21623XXSP,2013-03-30 05:34:00,
2013-03-30 01:38:00,44.6,32.8,30.04,WSW,247,0.0,1.8,63,0.00,,,0.00,WUHU21623XXSP,2013-03-30 05:38:00,
2013-03-30 01:39:00,44.4,32.8,30.04,West,270,1.1,1.8,63,0.00,,,0.00,WUHU21623XXSP,2013-03-30 05:39:00,
2013-03-30 01:43:00,44.4,32.6,30.04,WNW,292,0.0,1.3,63,0.00,,,0.00,WUHU21623XXSP,2013-03-30 05:43:00,
2013-03-30 01:44:00,44.4,32.6,30.04,WNW,292,0.0,1.3,63,0.00,,,0.00,WUHU21623XXSP,2013-03-30 05:44:00,
2013-03-30 01:49:00,44.4,32.6,30.04,WSW,247,3.4,3.4,63,0.00,,,0.00,WUHU21623XXSP,2013-03-30 05:49:00,
2013-03-30 01:54:00,44.4,33.0,30.05,West,270,1.8,3.4,64,0.00,,,0.00,WUHU21623XXSP,2013-03-30 05:54:00,
2013-03-30 01:55:00,44.4,33.0,30.05,West,270,1.8,3.4,64,0.00,,,0.00,WUHU21623XXSP,2013-03-30 05:55:00,
2013-03-30 01:59:00,44.4,33.0,30.05,NW,315,1.3,3.6,64,0.00,,,0.00,WUHU21623XXSP,2013-03-30 05:59:00,
2013-03-30 02:00:00,44.4,33.0,30.05,NW,315,1.3,3.6,64,0.00,,,0.00,WUHU21623XXSP,2013-03-30 06:00:00,
2013-03-30 02:04:00,44.4,33.0,30.05,WNW,292,0.0,3.6,64,0.00,,,0.00,WUHU21623XXSP,2013-03-30 06:04:00,
2013-03-30 02:05:00,44.4,33.0,30.05,WNW,292,0.0,3.6,64,0.00,,,0.00,WUHU21623XXSP,2013-03-30 06:05:00,
2013-03-30 02:09:00,44.4,33.0,30.05,West,270,2.2,2.2,64,0.00,,,0.00,WUHU21623XXSP,2013-03-30 06:09:00,
2013-03-30 02:10:00,44.4,33.0,30.05,West,270,2.2,2.2,64,0.00,,,0.00,WUHU21623XXSP,2013-03-30 06:10:00,
2013-03-30 02:14:00,44.4,32.8,30.04,West,270,0.9,2.2,64,0.00,,,0.00,WUHU21623XXSP,2013-03-30 06:14:00,
2013-03-30 02:15:00,44.2,32.8,30.04,WNW,292,0.0,2.2,64,0.00,,,0.00,WUHU21623XXSP,2013-03-30 06:15:00,
2013-03-30 02:16:00,44.2,32.8,30.04,WNW,292,0.0,2.2,64,0.00,,,0.00,WUHU21623XXSP,2013-03-30 06:16:00,
2013-03-30 02:19:00,44.2,32.8,30.04,WNW,292,0.0,0.9,64,0.00,,,0.00,WUHU21623XXSP,2013-03-30 06:19:00,
2013-03-30 02:20:00,44.2,32.8,30.04,WNW,292,0.0,0.9,64,0.00,,,0.00,WUHU21623XXSP,2013-03-30 06:20:00,
2013-03-30 02:21:00,44.2,32.8,30.04,West,270,0.0,0.9,64,0.00,,,0.00,WUHU21623XXSP,2013-03-30 06:21:00,
2013-03-30 02:24:00,44.2,32.8,30.04,West,270,0.0,0.0,64,0.00,,,0.00,WUHU21623XXSP,2013-03-30 06:24:00,
2013-03-30 02:25:00,44.2,32.8,30.04,West,270,0.0,0.0,64,0.00,,,0.00,WUHU21623XXSP,2013-03-30 06:25:00,
2013-03-30 02:26:00,44.2,32.8,30.04,West,270,0.0,0.0,64,0.00,,,0.00,WUHU21623XXSP,2013-03-30 06:26:00,
2013-03-30 02:29:00,44.1,32.6,30.04,NNW,337,2.7,2.7,64,0.00,,,0.00,WUHU21623XXSP,2013-03-30 06:29:00,
2013-03-30 02:30:00,44.1,32.6,30.04,NNW,337,2.7,2.7,64,0.00,,,0.00,WUHU21623XXSP,2013-03-30 06:30:00,
2013-03-30 02:31:00,44.1,32.6,30.04,NNW,337,2.7,2.7,64,0.00,,,0.00,WUHU21623XXSP,2013-03-30 06:31:00,
2013-03-30 02:34:00,43.9,32.5,30.04,NW,315,0.0,2.7,64,0.00,,,0.00,WUHU21623XXSP,2013-03-30 06:34:00,
2013-03-30 02:35:00,43.9,32.5,30.04,NW,315,0.0,2.7,64,0.00,,,0.00,WUHU21623XXSP,2013-03-30 06:35:00,
2013-03-30 02:36:00,43.9,32.5,30.04,NW,315,0.0,2.7,64,0.00,,,0.00,WUHU21623XXSP,2013-03-30 06:36:00,
2013-03-30 02:40:00,43.9,32.5,30.04,West,270,3.1,3.1,64,0.00,,,0.00,WUHU21623XXSP,2013-03-30 06:40:00,
2013-03-30 02:41:00,43.9,32.5,30.04,West,270,3.1,3.1,64,0.00,,,0.00,WUHU21623XXSP,2013-03-30 06:41:00,
2013-03-30 02:42:00,43.9,32.5,30.04,West,270,3.1,3.1,64,0.00,,,0.00,WUHU21623XXSP,2013-03-30 06:42:00,
2013-03-30 02:45:00,43.9,32.5,30.04,WNW,292,0.0,3.1,64,0.00,,,0.00,WUHU21623XXSP,2013-03-30 06:45:00,
2013-03-30 02:46:00,43.9,32.5,30.04,WNW,292,0.0,3.1,64,0.00,,,0.00,WUHU21623XXSP,2013-03-30 06:46:00,
2013-03-30 02:47:00,43.7,32.3,30.04,WNW,292,0.0,3.1,64,0.00,,,0.00,WUHU21623XXSP,2013-03-30 06:47:00,
2013-03-30 02:51:00,43.7,32.3,30.04,WNW,292,0.0,3.1,64,0.00,,,0.00,WUHU21623XXSP,2013-03-30 06:51:00,
2013-03-30 02:52:00,43.7,32.3,30.04,West,270,0.0,3.1,64,0.00,,,0.00,WUHU21623XXSP,2013-03-30 06:52:00,
2013-03-30 02:56:00,43.7,32.3,30.04,NNW,337,0.0,0.0,64,0.00,,,0.00,WUHU21623XXSP,2013-03-30 06:56:00,
2013-03-30 02:57:00,43.7,32.3,30.04,NNW,337,0.0,0.0,64,0.00,,,0.00,WUHU21623XXSP,2013-03-30 06:57:00,
2013-03-30 03:01:00,43.5,32.1,30.04,WSW,247,2.7,2.7,64,0.00,,,0.00,WUHU21623XXSP,2013-03-30 07:01:00,
2013-03-30 03:02:00,43.5,32.1,30.04,WSW,247,2.7,2.7,64,0.00,,,0.00,WUHU21623XXSP,2013-03-30 07:02:00,
2013-03-30 03:06:00,43.5,32.1,30.04,NW,315,1.3,2.7,64,0.00,,,0.00,WUHU21623XXSP,2013-03-30 07:06:00,
2013-03-30 03:07:00,43.5,32.1,30.04,NW,315,1.3,2.7,64,0.00,,,0.00,WUHU21623XXSP,2013-03-30 07:07:00,
2013-03-30 03:11:00,43.5,32.1,30.04,West,270,0.9,1.3,64,0.00,,,0.00,WUHU21623XXSP,2013-03-30 07:11:00,
2013-03-30 03:12:00,43.5,32.1,30.04,West,270,0.9,1.3,64,0.00,,,0.00,WUHU21623XXSP,2013-03-30 07:12:00,
2013-03-30 03:16:00,43.5,32.1,30.04,WNW,292,0.0,1.3,64,0.00,,,0.00,WUHU21623XXSP,2013-03-30 07:16:00,
2013-03-30 03:17:00,43.5,32.1,30.04,WNW,292,0.0,1.3,64,0.00,,,0.00,WUHU21623XXSP,2013-03-30 07:17:00,
2013-03-30 03:18:00,43.5,32.1,30.04,WNW,292,0.0,1.3,64,0.00,,,0.00,WUHU21623XXSP,2013-03-30 07:18:00,
2013-03-30 03:22:00,43.5,32.1,30.04,West,270,2.0,2.0,64,0.00,,,0.00,WUHU21623XXSP,2013-03-30 07:22:00,
2013-03-30 03:23:00,43.5,32.1,30.04,West,270,2.0,2.0,64,0.00,,,0.00,WUHU21623XXSP,2013-03-30 07:23:00,
2013-03-30 03:26:00,43.5,32.2,30.04,NW,315,0.9,0.9,64,0.00,,,0.00,WUHU21623XXSP,2013-03-30 07:26:00,
2013-03-30 03:27:00,43.5,32.1,30.04,NW,315,0.9,2.0,64,0.00,,,0.00,WUHU21623XXSP,2013-03-30 07:27:00,
2013-03-30 03:28:00,43.5,32.1,30.04,NW,315,2.2,2.2,64,0.00,,,0.00,WUHU21623XXSP,2013-03-30 07:28:00,
2013-03-30 03:32:00,43.3,31.9,30.04,West,270,1.3,2.2,64,0.00,,,0.00,WUHU21623XXSP,2013-03-30 07:32:00,
2013-03-30 03:33:00,43.3,31.9,30.04,West,270,1.3,2.2,64,0.00,,,0.00,WUHU21623XXSP,2013-03-30 07:33:00,
2013-03-30 03:37:00,43.3,31.9,30.04,WSW,247,2.9,2.9,64,0.00,,,0.00,WUHU21623XXSP,2013-03-30 07:37:00,
2013-03-30 03:38:00,43.3,31.9,30.04,WSW,247,2.9,2.9,64,0.00,,,0.00,WUHU21623XXSP,2013-03-30 07:38:00,
2013-03-30 03:42:00,43.3,31.9,30.04,West,270,2.7,2.9,64,0.00,,,0.00,WUHU21623XXSP,2013-03-30 07:42:00,
2013-03-30 03:43:00,43.3,31.9,30.04,West,270,2.7,2.9,64,0.00,,,0.00,WUHU21623XXSP,2013-03-30 07:43:00,
2013-03-30 03:44:00,43.3,31.9,30.04,West,270,2.7,2.9,64,0.00,,,0.00,WUHU21623XXSP,2013-03-30 07:44:00,
2013-03-30 03:47:00,43.3,31.9,30.04,NW,315,3.4,3.4,64,0.00,,,0.00,WUHU21623XXSP,2013-03-30 07:47:00,
2013-03-30 03:48:00,43.3,31.9,30.04,NW,315,3.4,3.4,64,0.00,,,0.00,WUHU21623XXSP,2013-03-30 07:48:00,
2013-03-30 03:49:00,43.3,31.9,30.04,NW,315,3.4,3.4,64,0.00,,,0.00,WUHU21623XXSP,2013-03-30 07:49:00,
2013-03-30 03:52:00,43.2,31.8,30.04,WNW,292,2.0,3.4,64,0.00,,,0.00,WUHU21623XXSP,2013-03-30 07:52:00,
2013-03-30 03:53:00,43.2,31.8,30.04,WNW,292,2.0,3.4,64,0.00,,,0.00,WUHU21623XXSP,2013-03-30 07:53:00,
2013-03-30 03:54:00,43.2,31.8,30.04,WNW,292,2.0,3.4,64,0.00,,,0.00,WUHU21623XXSP,2013-03-30 07:54:00,
2013-03-30 03:57:00,43.0,31.6,30.05,WNW,292,0.0,5.4,64,0.00,,,0.00,WUHU21623XXSP,2013-03-30 07:57:00,
2013-03-30 03:58:00,43.0,31.6,30.05,WNW,292,0.0,5.4,64,0.00,,,0.00,WUHU21623XXSP,2013-03-30 07:58:00,
2013-03-30 03:59:00,43.0,31.6,30.05,WNW,292,0.0,5.4,64,0.00,,,0.00,WUHU21623XXSP,2013-03-30 07:59:00,
2013-03-30 04:03:00,43.0,31.6,30.04,WNW,292,2.9,5.4,64,0.00,,,0.00,WUHU21623XXSP,2013-03-30 08:03:00,
2013-03-30 04:04:00,43.0,31.6,30.04,WNW,292,2.9,5.4,64,0.00,,,0.00,WUHU21623XXSP,2013-03-30 08:04:00,
2013-03-30 04:08:00,42.6,31.2,30.04,WNW,292,0.0,3.1,64,0.00,,,0.00,WUHU21623XXSP,2013-03-30 08:08:00,
2013-03-30 04:09:00,42.6,31.2,30.04,WNW,292,0.0,3.1,64,0.00,,,0.00,WUHU21623XXSP,2013-03-30 08:09:00,
2013-03-30 04:10:00,42.6,31.2,30.04,WNW,292,0.0,3.1,64,0.00,,,0.00,WUHU21623XXSP,2013-03-30 08:10:00,
2013-03-30 04:13:00,42.6,31.2,30.04,NNW,337,1.6,3.1,64,0.00,,,0.00,WUHU21623XXSP,2013-03-30 08:13:00,
2013-03-30 04:14:00,42.6,31.2,30.04,NNW,337,1.6,3.1,64,0.00,,,0.00,WUHU21623XXSP,2013-03-30 08:14:00,
2013-03-30 04:15:00,42.4,31.5,30.04,West,270,0.0,3.1,65,0.00,,,0.00,WUHU21623XXSP,2013-03-30 08:15:00,
2013-03-30 04:18:00,42.4,31.5,30.04,West,270,0.0,1.6,65,0.00,,,0.00,WUHU21623XXSP,2013-03-30 08:18:00,
2013-03-30 04:19:00,42.4,31.5,30.04,West,270,0.0,1.6,65,0.00,,,0.00,WUHU21623XXSP,2013-03-30 08:19:00,
2013-03-30 04:20:00,42.4,31.5,30.04,West,270,0.0,1.6,65,0.00,,,0.00,WUHU21623XXSP,2013-03-30 08:20:00,
2013-03-30 04:24:00,42.1,31.1,30.04,WNW,292,0.0,0.0,65,0.00,,,0.00,WUHU21623XXSP,2013-03-30 08:24:00,
2013-03-30 04:25:00,42.1,31.1,30.04,WNW,292,0.0,0.0,65,0.00,,,0.00,WUHU21623XXSP,2013-03-30 08:25:00,
2013-03-30 04:26:00,42.1,31.3,30.04,WNW,293,0.0,0.0,65,0.00,,,0.00,WUHU21623XXSP,2013-03-30 08:26:00,
2013-03-30 04:29:00,42.1,31.1,30.04,WNW,292,0.0,0.0,65,0.00,,,0.00,WUHU21623XXSP,2013-03-30 08:29:00,
2013-03-30 04:30:00,41.9,31.1,30.04,WNW,292,0.0,0.0,65,0.00,,,0.00,WUHU21623XXSP,2013-03-30 08:30:00,
2013-03-30 04:34:00,41.7,30.8,30.04,NW,315,0.0,1.1,65,0.00,,,0.00,WUHU21623XXSP,2013-03-30 08:34:00,
2013-03-30 04:35:00,41.7,30.8,30.04,NW,315,0.0,1.1,65,0.00,,,0.00,WUHU21623XXSP,2013-03-30 08:35:00,
2013-03-30 04:39:00,41.7,30.8,30.04,NW,315,0.0,1.1,65,0.00,,,0.00,WUHU21623XXSP,2013-03-30 08:39:00,
2013-03-30 04:40:00,41.7,30.8,30.04,NW,315,0.0,1.1,65,0.00,,,0.00,WUHU21623XXSP,2013-03-30 08:40:00,
2013-03-30 04:45:00,41.5,31.0,30.04,WNW,292,0.0,0.0,66,0.00,,,0.00,WUHU21623XXSP,2013-03-30 08:45:00,
2013-03-30 04:46:00,41.5,31.0,30.04,WNW,292,0.0,0.0,66,0.00,,,0.00,WUHU21623XXSP,2013-03-30 08:46:00,
2013-03-30 04:50:00,41.4,30.8,30.04,WNW,292,0.0,0.0,66,0.00,,,0.00,WUHU21623XXSP,2013-03-30 08:50:00,
2013-03-30 04:52:00,41.4,30.8,30.04,WNW,292,0.0,0.0,66,0.00,,,0.00,WUHU21623XXSP,2013-03-30 08:52:00,
2013-03-30 04:55:00,41.2,30.6,30.04,WNW,292,0.0,0.0,66,0.00,,,0.00,WUHU21623XXSP,2013-03-30 08:55:00,
2013-03-30 04:57:00,41.2,30.6,30.04,NW,315,0.0,1.1,66,0.00,,,0.00,WUHU21623XXSP,2013-03-30 08:57:00,
2013-03-30 04:58:00,41.2,30.6,30.04,NW,315,0.0,1.1,66,0.00,,,0.00,WUHU21623XXSP,2013-03-30 08:58:00,
2013-03-30 05:00:00,41.0,30.5,30.04,NW,315,0.0,1.1,66,0.00,,,0.00,WUHU21623XXSP,2013-03-30 09:00:00,
2013-03-30 05:01:00,41.0,30.5,30.04,NW,315,0.0,1.1,66,0.00,,,0.00,WUHU21623XXSP,2013-03-30 09:01:00,
2013-03-30 05:02:00,40.8,30.5,30.04,NW,315,0.0,1.1,66,0.00,,,0.00,WUHU21623XXSP,2013-03-30 09:02:00,
2013-03-30 05:03:00,40.8,30.5,30.04,NW,315,0.0,1.1,66,0.00,,,0.00,WUHU21623XXSP,2013-03-30 09:03:00,
2013-03-30 05:05:00,40.8,30.3,30.04,NW,315,0.0,0.0,66,0.00,,,0.00,WUHU21623XXSP,2013-03-30 09:05:00,
2013-03-30 05:06:00,40.8,30.3,30.04,NW,315,0.0,0.0,66,0.00,,,0.00,WUHU21623XXSP,2013-03-30 09:06:00,
2013-03-30 05:08:00,40.8,30.3,30.04,NW,315,0.0,0.0,66,0.00,,,0.00,WUHU21623XXSP,2013-03-30 09:08:00,
2013-03-30 05:11:00,40.8,30.7,30.04,NW,315,0.0,0.0,67,0.00,,,0.00,WUHU21623XXSP,2013-03-30 09:11:00,
2013-03-30 05:13:00,40.6,30.5,30.04,West,270,1.6,1.6,67,0.00,,,0.00,WUHU21623XXSP,2013-03-30 09:13:00,
2013-03-30 05:16:00,40.6,30.5,30.04,NW,315,0.0,1.6,67,0.00,,,0.00,WUHU21623XXSP,2013-03-30 09:16:00,
2013-03-30 05:17:00,40.5,30.5,30.04,WNW,292,1.3,1.6,67,0.00,,,0.00,WUHU21623XXSP,2013-03-30 09:17:00,
2013-03-30 05:18:00,40.5,30.5,30.04,WNW,292,1.3,1.6,67,0.00,,,0.00,WUHU21623XXSP,2013-03-30 09:18:00,
2013-03-30 05:22:00,40.3,30.1,30.04,WNW,292,0.0,1.6,67,0.00,,,0.00,WUHU21623XXSP,2013-03-30 09:22:00,
2013-03-30 05:23:00,40.3,30.1,30.04,WNW,292,0.0,1.3,67,0.00,,,0.00,WUHU21623XXSP,2013-03-30 09:23:00,
2013-03-30 05:26:00,40.3,30.3,30.04,WNW,293,0.0,0.0,67,0.00,,,0.00,WUHU21623XXSP,2013-03-30 09:26:00,
2013-03-30 05:27:00,40.3,30.1,30.04,WNW,292,0.0,1.3,67,0.00,,,0.00,WUHU21623XXSP,2013-03-30 09:27:00,
2013-03-30 05:28:00,40.1,30.0,30.04,NNW,337,3.6,3.6,67,0.00,,,0.00,WUHU21623XXSP,2013-03-30 09:28:00,
2013-03-30 05:29:00,40.1,30.0,30.04,NNW,337,3.6,3.6,67,0.00,,,0.00,WUHU21623XXSP,2013-03-30 09:29:00,
2013-03-30 05:32:00,40.1,30.0,30.05,WNW,292,0.0,3.6,67,0.00,,,0.00,WUHU21623XXSP,2013-03-30 09:32:00,
2013-03-30 05:33:00,40.1,30.0,30.05,WNW,292,0.0,3.6,67,0.00,,,0.00,WUHU21623XXSP,2013-03-30 09:33:00,
2013-03-30 05:34:00,40.1,30.0,30.05,WNW,292,0.0,3.6,67,0.00,,,0.00,WUHU21623XXSP,2013-03-30 09:34:00,
2013-03-30 05:37:00,39.9,29.8,30.05,WNW,292,0.0,3.6,67,0.00,,,0.00,WUHU21623XXSP,2013-03-30 09:37:00,
2013-03-30 05:38:00,39.9,29.8,30.05,WNW,292,0.0,3.6,67,0.00,,,0.00,WUHU21623XXSP,2013-03-30 09:38:00,
2013-03-30 05:39:00,39.9,29.8,30.04,WNW,292,0.0,3.6,67,0.00,,,0.00,WUHU21623XXSP,2013-03-30 09:39:00,
2013-03-30 05:42:00,39.9,29.8,30.04,WNW,292,0.0,0.0,67,0.00,,,0.00,WUHU21623XXSP,2013-03-30 09:42:00,
2013-03-30 05:43:00,39.9,29.8,30.04,WNW,292,0.0,0.0,67,0.00,,,0.00,WUHU21623XXSP,2013-03-30 09:43:00,
2013-03-30 05:44:00,39.9,29.8,30.04,WNW,292,0.0,0.0,67,0.00,,,0.00,WUHU21623XXSP,2013-03-30 09:44:00,
2013-03-30 05:47:00,39.7,30.0,30.04,WNW,292,0.0,0.0,68,0.00,,,0.00,WUHU21623XXSP,2013-03-30 09:47:00,
2013-03-30 05:48:00,39.7,30.0,30.04,WNW,292,0.0,0.0,68,0.00,,,0.00,WUHU21623XXSP,2013-03-30 09:48:00,
2013-03-30 05:49:00,39.7,30.0,30.04,WNW,292,0.0,0.0,68,0.00,,,0.00,WUHU21623XXSP,2013-03-30 09:49:00,
2013-03-30 05:53:00,39.6,30.0,30.04,West,270,0.0,0.0,68,0.00,,,0.00,WUHU21623XXSP,2013-03-30 09:53:00,
2013-03-30 05:54:00,39.6,30.0,30.04,West,270,0.0,0.0,68,0.00,,,0.00,WUHU21623XXSP,2013-03-30 09:54:00,
2013-03-30 05:55:00,39.6,30.0,30.04,West,270,0.0,0.0,68,0.00,,,0.00,WUHU21623XXSP,2013-03-30 09:55:00,
2013-03-30 05:59:00,39.4,29.6,30.04,WNW,292,1.6,1.6,68,0.00,,,0.00,WUHU21623XXSP,2013-03-30 09:59:00,
2013-03-30 06:00:00,39.4,29.6,30.04,WNW,292,0.0,1.6,68,0.00,,,0.00,WUHU21623XXSP,2013-03-30 10:00:00,
2013-03-30 06:04:00,39.4,29.6,30.05,WNW,292,0.0,1.6,68,0.00,,,0.00,WUHU21623XXSP,2013-03-30 10:04:00,
2013-03-30 06:05:00,39.4,29.6,30.05,WNW,292,0.0,1.6,68,0.00,,,0.00,WUHU21623XXSP,2013-03-30 10:05:00,
2013-03-30 06:09:00,39.4,29.6,30.04,WNW,292,1.6,1.6,68,0.00,,,0.00,WUHU21623XXSP,2013-03-30 10:09:00,
2013-03-30 06:10:00,39.4,29.6,30.04,WNW,292,1.6,1.6,68,0.00,,,0.00,WUHU21623XXSP,2013-03-30 10:10:00,
2013-03-30 06:14:00,39.0,29.3,30.05,West,270,0.0,1.6,68,0.00,,,0.00,WUHU21623XXSP,2013-03-30 10:14:00,
2013-03-30 06:15:00,39.0,29.3,30.05,West,270,0.0,1.6,68,0.00,,,0.00,WUHU21623XXSP,2013-03-30 10:15:00,
2013-03-30 06:20:00,39.0,29.7,30.04,NW,315,0.0,1.6,69,0.00,,,0.00,WUHU21623XXSP,2013-03-30 10:20:00,
2013-03-30 06:25:00,39.0,29.7,30.05,West,270,2.9,2.9,69,0.00,,,0.00,WUHU21623XXSP,2013-03-30 10:25:00,
2013-03-30 06:26:00,39.0,29.8,30.04,West,270,1.1,1.1,69,0.00,,,0.00,WUHU21623XXSP,2013-03-30 10:26:00,
2013-03-30 06:30:00,39.0,29.7,30.04,West,270,1.1,2.9,69,0.00,,,0.00,WUHU21623XXSP,2013-03-30 10:30:00,
2013-03-30 06:31:00,39.0,29.7,30.04,West,270,1.1,2.9,69,0.00,,,0.00,WUHU21623XXSP,2013-03-30 10:31:00,
2013-03-30 06:35:00,39.0,29.7,30.04,West,270,2.7,2.7,69,0.00,,,0.00,WUHU21623XXSP,2013-03-30 10:35:00,
2013-03-30 06:36:00,39.0,29.7,30.04,West,270,2.7,2.7,69,0.00,,,0.00,WUHU21623XXSP,2013-03-30 10:36:00,
2013-03-30 06:40:00,39.0,29.7,30.04,West,270,0.0,2.7,69,0.00,,,0.00,WUHU21623XXSP,2013-03-30 10:40:00,
2013-03-30 06:41:00,39.0,29.7,30.04,West,270,0.0,2.7,69,0.00,,,0.00,WUHU21623XXSP,2013-03-30 10:41:00,
2013-03-30 06:45:00,39.0,29.7,30.05,West,270,0.9,0.9,69,0.00,,,0.00,WUHU21623XXSP,2013-03-30 10:45:00,
2013-03-30 06:46:00,39.0,29.7,30.05,West,270,0.9,0.9,69,0.00,,,0.00,WUHU21623XXSP,2013-03-30 10:46:00,
2013-03-30 06:50:00,39.0,29.7,30.05,West,270,2.2,2.2,69,0.00,,,0.00,WUHU21623XXSP,2013-03-30 10:50:00,
2013-03-30 06:51:00,39.0,29.7,30.05,West,270,2.2,2.2,69,0.00,,,0.00,WUHU21623XXSP,2013-03-30 10:51:00,
2013-03-30 06:55:00,39.0,29.7,30.05,WNW,292,0.0,2.2,69,0.00,,,0.00,WUHU21623XXSP,2013-03-30 10:55:00,
2013-03-30 06:56:00,39.0,29.7,30.05,WNW,292,0.0,2.2,69,0.00,,,0.00,WUHU21623XXSP,2013-03-30 10:56:00,
2013-03-30 06:57:00,39.0,29.7,30.05,WNW,292,0.0,2.2,69,0.00,,,0.00,WUHU21623XXSP,2013-03-30 10:57:00,
2013-03-30 07:01:00,38.8,29.5,30.05,West,270,0.0,0.0,69,0.00,,,0.00,WUHU21623XXSP,2013-03-30 11:01:00,
2013-03-30 07:02:00,38.8,29.5,30.05,West,270,0.0,0.0,69,0.00,,,0.00,WUHU21623XXSP,2013-03-30 11:02:00,
2013-03-30 07:06:00,39.0,29.5,30.06,WNW,292,0.0,0.0,69,0.00,,,0.00,WUHU21623XXSP,2013-03-30 11:06:00,
2013-03-30 07:07:00,39.0,29.7,30.06,NW,315,0.0,0.0,69,0.00,,,0.00,WUHU21623XXSP,2013-03-30 11:07:00,
2013-03-30 07:08:00,39.0,29.7,30.06,NW,315,0.0,0.0,69,0.00,,,0.00,WUHU21623XXSP,2013-03-30 11:08:00,
2013-03-30 07:11:00,39.0,29.7,30.06,NW,315,0.0,0.0,69,0.00,,,0.00,WUHU21623XXSP,2013-03-30 11:11:00,
2013-03-30 07:12:00,39.0,29.7,30.06,NW,315,0.0,0.0,69,0.00,,,0.00,WUHU21623XXSP,2013-03-30 11:12:00,
2013-03-30 07:13:00,38.8,29.7,30.06,NW,315,0.0,0.0,69,0.00,,,0.00,WUHU21623XXSP,2013-03-30 11:13:00,
2013-03-30 07:16:00,39.0,29.7,30.06,NW,315,0.0,0.0,69,0.00,,,0.00,WUHU21623XXSP,2013-03-30 11:16:00,
2013-03-30 07:17:00,39.0,29.7,30.06,NW,315,0.0,0.0,69,0.00,,,0.00,WUHU21623XXSP,2013-03-30 11:17:00,
2013-03-30 07:18:00,39.0,29.7,30.06,NW,315,0.0,0.0,69,0.00,,,0.00,WUHU21623XXSP,2013-03-30 11:18:00,
2013-03-30 07:22:00,38.8,29.5,30.06,WNW,292,0.0,0.0,69,0.00,,,0.00,WUHU21623XXSP,2013-03-30 11:22:00,
2013-03-30 07:23:00,38.8,29.5,30.06,WNW,292,0.0,0.0,69,0.00,,,0.00,WUHU21623XXSP,2013-03-30 11:23:00,
2013-03-30 07:26:00,39.0,29.8,30.06,NW,315,3.4,3.4,69,0.00,,,0.00,WUHU21623XXSP,2013-03-30 11:26:00,
2013-03-30 07:27:00,39.0,29.7,30.06,NW,315,3.4,3.4,69,0.00,,,0.00,WUHU21623XXSP,2013-03-30 11:27:00,
2013-03-30 07:28:00,39.0,29.7,30.06,NW,315,3.4,3.4,69,0.00,,,0.00,WUHU21623XXSP,2013-03-30 11:28:00,
2013-03-30 07:29:00,39.0,29.7,30.06,NW,315,3.4,3.4,69,0.00,,,0.00,WUHU21623XXSP,2013-03-30 11:29:00,
2013-03-30 07:32:00,39.0,29.7,30.06,WNW,292,0.0,3.4,69,0.00,,,0.00,WUHU21623XXSP,2013-03-30 11:32:00,
2013-03-30 07:33:00,39.0,29.7,30.06,WNW,292,0.0,3.4,69,0.00,,,0.00,WUHU21623XXSP,2013-03-30 11:33:00,
2013-03-30 07:34:00,39.0,29.7,30.06,NW,315,2.2,3.4,69,0.00,,,0.00,WUHU21623XXSP,2013-03-30 11:34:00,
2013-03-30 07:37:00,39.0,29.7,30.06,NW,315,2.2,3.4,69,0.00,,,0.00,WUHU21623XXSP,2013-03-30 11:37:00,
2013-03-30 07:38:00,39.0,29.7,30.06,WNW,292,3.1,3.4,69,0.00,,,0.00,WUHU21623XXSP,2013-03-30 11:38:00,
2013-03-30 07:39:00,39.0,29.7,30.06,WNW,292,3.1,3.4,69,0.00,,,0.00,WUHU21623XXSP,2013-03-30 11:39:00,
2013-03-30 07:43:00,39.4,30.0,30.06,NNW,337,1.8,3.1,69,0.00,,,0.00,WUHU21623XXSP,2013-03-30 11:43:00,
2013-03-30 07:44:00,39.4,30.0,30.06,NNW,337,1.8,3.1,69,0.00,,,0.00,WUHU21623XXSP,2013-03-30 11:44:00,
2013-03-30 07:48:00,39.6,30.0,30.06,West,270,3.1,3.1,69,0.00,,,0.00,WUHU21623XXSP,2013-03-30 11:48:00,
2013-03-30 07:49:00,39.6,29.8,30.06,WNW,292,2.0,3.1,68,0.00,,,0.00,WUHU21623XXSP,2013-03-30 11:49:00,
2013-03-30 07:53:00,39.7,30.0,30.06,WSW,247,2.9,3.1,68,0.00,,,0.00,WUHU21623XXSP,2013-03-30 11:53:00,
2013-03-30 07:54:00,39.7,30.0,30.06,WSW,247,2.9,3.1,68,0.00,,,0.00,WUHU21623XXSP,2013-03-30 11:54:00,
2013-03-30 07:58:00,39.9,30.2,30.07,West,270,1.8,2.9,68,0.00,,,0.00,WUHU21623XXSP,2013-03-30 11:58:00,
2013-03-30 07:59:00,40.1,30.2,30.07,NNW,337,1.6,2.9,68,0.00,,,0.00,WUHU21623XXSP,2013-03-30 11:59:00,
2013-03-30 08:00:00,40.1,30.2,30.07,NNW,337,1.6,2.9,68,0.00,,,0.00,WUHU21623XXSP,2013-03-30 12:00:00,
2013-03-30 08:03:00,40.3,30.3,30.06,NNW,337,1.6,1.8,68,0.00,,,0.00,WUHU21623XXSP,2013-03-30 12:03:00,
2013-03-30 08:04:00,40.3,30.3,30.06,NNW,337,1.6,1.8,68,0.00,,,0.00,WUHU21623XXSP,2013-03-30 12:04:00,
2013-03-30 08:05:00,40.5,30.7,30.06,West,270,2.2,2.2,68,0.00,,,0.00,WUHU21623XXSP,2013-03-30 12:05:00,
2013-03-30 08:08:00,40.8,30.9,30.06,WNW,292,0.0,2.2,68,0.00,,,0.00,WUHU21623XXSP,2013-03-30 12:08:00,
2013-03-30 08:09:00,40.8,30.9,30.06,WNW,292,0.0,2.2,68,0.00,,,0.00,WUHU21623XXSP,2013-03-30 12:09:00,
2013-03-30 08:10:00,40.8,30.9,30.06,WNW,292,0.0,2.2,68,0.00,,,0.00,WUHU21623XXSP,2013-03-30 12:10:00,
2013-03-30 08:13:00,41.2,31.0,30.06,WNW,292,3.1,3.1,67,0.00,,,0.00,WUHU21623XXSP,2013-03-30 12:13:00,
2013-03-30 08:14:00,41.2,31.0,30.06,WNW,292,3.1,3.1,67,0.00,,,0.00,WUHU21623XXSP,2013-03-30 12:14:00,
2013-03-30 08:15:00,41.4,31.0,30.07,ENE,67,4.0,4.0,67,0.00,,,0.00,WUHU21623XXSP,2013-03-30 12:15:00,
2013-03-30 08:19:00,41.5,31.0,30.07,NW,315,2.9,4.0,66,0.00,,,0.00,WUHU21623XXSP,2013-03-30 12:19:00,
2013-03-30 08:20:00,41.5,31.0,30.07,North,0,9.2,9.2,66,0.00,,,0.00,WUHU21623XXSP,2013-03-30 12:20:00,
2013-03-30 08:24:00,41.9,31.4,30.06,NW,315,0.0,9.2,66,0.00,,,0.00,WUHU21623XXSP,2013-03-30 12:24:00,
2013-03-30 08:25:00,41.9,31.4,30.06,NW,315,0.0,9.2,66,0.00,,,0.00,WUHU21623XXSP,2013-03-30 12:25:00,
2013-03-30 08:26:00,42.1,31.6,30.06,NW,315,3.4,3.4,66,0.00,,,0.00,WUHU21623XXSP,2013-03-30 12:26:00,
2013-03-30 08:29:00,42.1,31.1,30.06,West,270,1.3,9.2,65,0.00,,,0.00,WUHU21623XXSP,2013-03-30 12:29:00,
2013-03-30 08:30:00,42.4,31.5,30.06,WSW,247,4.0,9.2,65,0.00,,,0.00,WUHU21623XXSP,2013-03-30 12:30:00,
2013-03-30 08:34:00,42.6,31.2,30.06,NNE,22,0.7,4.0,64,0.00,,,0.00,WUHU21623XXSP,2013-03-30 12:34:00,
2013-03-30 08:35:00,42.6,31.2,30.06,NNE,22,0.7,4.0,64,0.00,,,0.00,WUHU21623XXSP,2013-03-30 12:35:00,
2013-03-30 08:39:00,43.0,31.6,30.06,NNW,337,1.1,4.0,64,0.00,,,0.00,WUHU21623XXSP,2013-03-30 12:39:00,
2013-03-30 08:40:00,43.0,31.6,30.06,NNW,337,1.1,2.9,64,0.00,,,0.00,WUHU21623XXSP,2013-03-30 12:40:00,
2013-03-30 08:41:00,43.2,31.8,30.06,SW,225,0.7,2.9,64,0.00,,,0.00,WUHU21623XXSP,2013-03-30 12:41:00,
2013-03-30 08:44:00,43.5,31.7,30.06,SSW,202,1.3,1.3,63,0.00,,,0.00,WUHU21623XXSP,2013-03-30 12:44:00,
2013-03-30 08:45:00,43.5,31.7,30.06,SSW,202,1.3,1.3,63,0.00,,,0.00,WUHU21623XXSP,2013-03-30 12:45:00,
2013-03-30 08:46:00,43.5,31.7,30.06,SSW,202,1.3,1.3,63,0.00,,,0.00,WUHU21623XXSP,2013-03-30 12:46:00,
2013-03-30 08:47:00,43.5,31.7,30.06,SSW,202,1.3,1.3,63,0.00,,,0.00,WUHU21623XXSP,2013-03-30 12:47:00,
2013-03-30 08:50:00,43.9,31.7,30.06,West,270,0.7,1.3,62,0.00,,,0.00,WUHU21623XXSP,2013-03-30 12:50:00,
2013-03-30 08:51:00,44.1,31.5,30.07,NW,315,3.8,3.8,61,0.00,,,0.00,WUHU21623XXSP,2013-03-30 12:51:00,
2013-03-30 08:52:00,44.1,31.5,30.07,NW,315,3.8,3.8,61,0.00,,,0.00,WUHU21623XXSP,2013-03-30 12:52:00,
2013-03-30 08:55:00,44.2,31.5,30.07,WSW,247,2.2,3.8,61,0.00,,,0.00,WUHU21623XXSP,2013-03-30 12:55:00,
2013-03-30 08:56:00,44.4,31.8,30.06,NNW,337,3.8,3.8,61,0.00,,,0.00,WUHU21623XXSP,2013-03-30 12:56:00,
2013-03-30 08:57:00,44.4,31.8,30.06,NNW,337,3.8,3.8,61,0.00,,,0.00,WUHU21623XXSP,2013-03-30 12:57:00,
2013-03-30 09:00:00,44.4,31.8,30.07,SW,225,1.3,3.8,60,0.00,,,0.00,WUHU21623XXSP,2013-03-30 13:00:00,
2013-03-30 09:02:00,45.0,31.5,30.06,SW,225,1.3,3.8,60,0.00,,,0.00,WUHU21623XXSP,2013-03-30 13:02:00,
2013-03-30 09:05:00,45.1,31.7,30.06,NW,315,4.3,4.3,59,0.00,,,0.00,WUHU21623XXSP,2013-03-30 13:05:00,
2013-03-30 09:06:00,45.3,31.8,30.06,NW,315,0.0,4.3,59,0.00,,,0.00,WUHU21623XXSP,2013-03-30 13:06:00,
2013-03-30 09:07:00,45.3,31.8,30.06,NW,315,0.0,4.3,59,0.00,,,0.00,WUHU21623XXSP,2013-03-30 13:07:00,
2013-03-30 09:10:00,45.3,31.4,30.06,West,270,3.6,4.3,58,0.00,,,0.00,WUHU21623XXSP,2013-03-30 13:10:00,
2013-03-30 09:11:00,45.7,31.4,30.06,West,270,3.6,4.3,58,0.00,,,0.00,WUHU21623XXSP,2013-03-30 13:11:00,
2013-03-30 09:12:00,45.7,31.4,30.06,West,270,3.6,4.3,58,0.00,,,0.00,WUHU21623XXSP,2013-03-30 13:12:00,
2013-03-30 09:15:00,46.0,31.6,30.06,NNW,337,1.1,3.6,57,0.00,,,0.00,WUHU21623XXSP,2013-03-30 13:15:00,
2013-03-30 09:16:00,46.0,31.6,30.07,WNW,292,0.0,3.6,57,0.00,,,0.00,WUHU21623XXSP,2013-03-30 13:16:00,
2013-03-30 09:17:00,46.0,31.6,30.07,WNW,292,0.0,3.6,57,0.00,,,0.00,WUHU21623XXSP,2013-03-30 13:17:00,
2013-03-30 09:18:00,46.0,31.6,30.07,WNW,292,0.0,3.6,57,0.00,,,0.00,WUHU21623XXSP,2013-03-30 13:18:00,
2013-03-30 09:20:00,46.2,31.6,30.06,West,270,5.4,5.4,57,0.00,,,0.00,WUHU21623XXSP,2013-03-30 13:20:00,
2013-03-30 09:22:00,46.4,31.7,30.06,West,270,5.4,5.4,56,0.00,,,0.00,WUHU21623XXSP,2013-03-30 13:22:00,
2013-03-30 09:23:00,46.4,31.7,30.06,West,270,5.4,5.4,56,0.00,,,0.00,WUHU21623XXSP,2013-03-30 13:23:00,
2013-03-30 09:25:00,46.8,31.6,30.06,ENE,67,1.3,5.4,56,0.00,,,0.00,WUHU21623XXSP,2013-03-30 13:25:00,
2013-03-30 09:26:00,46.8,32.0,30.06,ENE,68,1.3,1.3,56,0.00,,,0.00,WUHU21623XXSP,2013-03-30 13:26:00,
2013-03-30 09:27:00,46.8,31.6,30.06,ENE,67,1.3,5.4,56,0.00,,,0.00,WUHU21623XXSP,2013-03-30 13:27:00,
2013-03-30 09:28:00,46.8,31.8,30.06,NW,315,0.7,5.4,55,0.00,,,0.00,WUHU21623XXSP,2013-03-30 13:28:00,
2013-03-30 09:30:00,47.1,31.7,30.06,NW,315,0.0,5.4,55,0.00,,,0.00,WUHU21623XXSP,2013-03-30 13:30:00,
2013-03-30 09:32:00,47.3,31.4,30.06,West,270,4.9,4.9,54,0.00,,,0.00,WUHU21623XXSP,2013-03-30 13:32:00,
2013-03-30 09:33:00,47.3,31.4,30.06,West,270,4.9,4.9,54,0.00,,,0.00,WUHU21623XXSP,2013-03-30 13:33:00,
2013-03-30 09:35:00,47.5,31.4,30.07,West,270,4.9,4.9,54,0.00,,,0.00,WUHU21623XXSP,2013-03-30 13:35:00,
2013-03-30 09:37:00,47.5,31.1,30.06,NW,315,0.0,4.9,53,0.00,,,0.00,WUHU21623XXSP,2013-03-30 13:37:00,
2013-03-30 09:38:00,47.5,31.1,30.06,NW,315,0.0,4.9,53,0.00,,,0.00,WUHU21623XXSP,2013-03-30 13:38:00,
2013-03-30 09:41:00,48.0,31.4,30.06,NW,315,5.4,5.4,53,0.00,,,0.00,WUHU21623XXSP,2013-03-30 13:41:00,
2013-03-30 09:43:00,48.0,31.6,30.06,NNE,22,1.8,5.4,53,0.00,,,0.00,WUHU21623XXSP,2013-03-30 13:43:00,
2013-03-30 09:46:00,48.0,31.6,30.06,NNE,22,1.8,5.4,52,0.00,,,0.00,WUHU21623XXSP,2013-03-30 13:46:00,
2013-03-30 09:48:00,48.4,31.5,30.06,WNW,292,0.9,5.4,52,0.00,,,0.00,WUHU21623XXSP,2013-03-30 13:48:00,
2013-03-30 09:51:00,48.7,31.2,30.07,West,270,1.6,1.8,51,0.00,,,0.00,WUHU21623XXSP,2013-03-30 13:51:00,
2013-03-30 09:53:00,48.7,31.4,30.06,West,270,1.6,1.8,51,0.00,,,0.00,WUHU21623XXSP,2013-03-30 13:53:00,
2013-03-30 09:54:00,48.7,31.4,30.06,West,270,1.6,1.8,51,0.00,,,0.00,WUHU21623XXSP,2013-03-30 13:54:00,
2013-03-30 09:57:00,48.7,31.4,30.06,West,270,3.1,3.1,51,0.00,,,0.00,WUHU21623XXSP,2013-03-30 13:57:00,
2013-03-30 09:58:00,48.9,31.1,30.07,WSW,247,7.4,7.4,50,0.00,,,0.00,WUHU21623XXSP,2013-03-30 13:58:00,
2013-03-30 09:59:00,48.9,31.1,30.07,WSW,247,7.4,7.4,50,0.00,,,0.00,WUHU21623XXSP,2013-03-30 13:59:00,
2013-03-30 10:03:00,49.1,31.1,30.06,West,270,4.9,7.4,50,0.00,,,0.00,WUHU21623XXSP,2013-03-30 14:03:00,
2013-03-30 10:04:00,49.1,31.3,30.06,West,270,4.9,7.4,50,0.00,,,0.00,WUHU21623XXSP,2013-03-30 14:04:00,
2013-03-30 10:08:00,49.1,31.3,30.07,WNW,292,3.1,7.4,49,0.00,,,0.00,WUHU21623XXSP,2013-03-30 14:08:00,
2013-03-30 10:09:00,49.3,30.7,30.07,WNW,292,3.1,7.4,49,0.00,,,0.00,WUHU21623XXSP,2013-03-30 14:09:00,
2013-03-30 10:13:00,49.6,31.3,30.06,NW,315,1.1,4.9,49,0.00,,,0.00,WUHU21623XXSP,2013-03-30 14:13:00,
2013-03-30 10:14:00,49.6,31.3,30.06,NW,315,1.1,3.1,49,0.00,,,0.00,WUHU21623XXSP,2013-03-30 14:14:00,
2013-03-30 10:15:00,49.8,31.4,30.06,NW,315,0.0,3.1,49,0.00,,,0.00,WUHU21623XXSP,2013-03-30 14:15:00,
2013-03-30 10:18:00,50.0,31.4,30.06,NW,315,0.0,3.1,49,0.00,,,0.00,WUHU21623XXSP,2013-03-30 14:18:00,
2013-03-30 10:19:00,50.0,31.6,30.06,NW,315,0.0,3.1,49,0.00,,,0.00,WUHU21623XXSP,2013-03-30 14:19:00,
2013-03-30 10:20:00,50.0,31.6,30.06,NW,315,0.0,1.1,49,0.00,,,0.00,WUHU21623XXSP,2013-03-30 14:20:00,
2013-03-30 10:23:00,50.0,31.6,30.06,NW,315,0.0,0.0,49,0.00,,,0.00,WUHU21623XXSP,2013-03-30 14:23:00,
2013-03-30 10:25:00,50.0,31.6,30.06,NW,315,0.0,0.0,49,0.00,,,0.00,WUHU21623XXSP,2013-03-30 14:25:00,
2013-03-30 10:26:00,50.0,30.5,30.06,NW,315,0.0,0.0,47,0.00,,,0.00,WUHU21623XXSP,2013-03-30 14:26:00,
2013-03-30 10:28:00,50.7,30.5,30.06,NW,315,0.0,0.0,47,0.00,,,0.00,WUHU21623XXSP,2013-03-30 14:28:00,
2013-03-30 10:29:00,50.7,30.5,30.06,NW,315,0.0,0.0,47,0.00,,,0.00,WUHU21623XXSP,2013-03-30 14:29:00,
2013-03-30 10:30:00,50.7,30.6,30.06,West,270,2.5,2.5,46,0.00,,,0.00,WUHU21623XXSP,2013-03-30 14:30:00,
2013-03-30 10:33:00,50.7,30.6,30.06,WSW,247,3.6,3.6,46,0.00,,,0.00,WUHU21623XXSP,2013-03-30 14:33:00,
2013-03-30 10:34:00,50.7,30.6,30.06,WSW,247,3.6,3.6,46,0.00,,,0.00,WUHU21623XXSP,2013-03-30 14:34:00,
2013-03-30 10:35:00,50.7,30.6,30.06,WSW,247,3.6,3.6,46,0.00,,,0.00,WUHU21623XXSP,2013-03-30 14:35:00,
2013-03-30 10:36:00,50.7,30.6,30.06,WSW,247,3.6,3.6,46,0.00,,,0.00,WUHU21623XXSP,2013-03-30 14:36:00,
2013-03-30 10:38:00,51.1,30.4,30.06,West,270,3.1,3.6,45,0.00,,,0.00,WUHU21623XXSP,2013-03-30 14:38:00,
2013-03-30 10:39:00,51.1,30.4,30.06,West,270,3.1,3.6,45,0.00,,,0.00,WUHU21623XXSP,2013-03-30 14:39:00,
2013-03-30 10:40:00,51.1,30.4,30.06,NW,315,4.7,4.7,45,0.00,,,0.00,WUHU21623XXSP,2013-03-30 14:40:00,
2013-03-30 10:41:00,51.1,30.4,30.06,NW,315,4.7,4.7,45,0.00,,,0.00,WUHU21623XXSP,2013-03-30 14:41:00,
2013-03-30 10:43:00,51.6,30.8,30.06,NNE,22,2.0,4.7,45,0.00,,,0.00,WUHU21623XXSP,2013-03-30 14:43:00,
2013-03-30 10:44:00,51.6,30.8,30.06,NW,315,0.0,4.7,45,0.00,,,0.00,WUHU21623XXSP,2013-03-30 14:44:00,
2013-03-30 10:45:00,51.6,30.8,30.06,NW,315,0.0,4.7,45,0.00,,,0.00,WUHU21623XXSP,2013-03-30 14:45:00,
2013-03-30 10:46:00,52.0,31.2,30.06,West,270,6.9,6.9,45,0.00,,,0.00,WUHU21623XXSP,2013-03-30 14:46:00,
2013-03-30 10:49:00,52.0,31.2,30.06,West,270,6.9,6.9,45,0.00,,,0.00,WUHU21623XXSP,2013-03-30 14:49:00,
2013-03-30 10:51:00,52.0,31.2,30.06,West,270,6.9,6.9,45,0.00,,,0.00,WUHU21623XXSP,2013-03-30 14:51:00,
2013-03-30 10:52:00,52.0,31.2,30.06,West,270,8.3,8.3,45,0.00,,,0.00,WUHU21623XXSP,2013-03-30 14:52:00,
2013-03-30 10:54:00,52.0,30.6,30.06,NW,315,0.0,8.3,44,0.00,,,0.00,WUHU21623XXSP,2013-03-30 14:54:00,
2013-03-30 10:55:00,52.0,30.6,30.06,NW,315,0.0,8.3,44,0.00,,,0.00,WUHU21623XXSP,2013-03-30 14:55:00,
2013-03-30 10:56:00,52.2,30.8,30.06,NW,315,6.7,8.3,44,0.00,,,0.00,WUHU21623XXSP,2013-03-30 14:56:00,
2013-03-30 10:58:00,52.2,30.2,30.06,NW,315,2.0,8.3,43,0.00,,,0.00,WUHU21623XXSP,2013-03-30 14:58:00,
2013-03-30 10:59:00,52.3,30.4,30.06,West,270,4.9,8.3,43,0.00,,,0.00,WUHU21623XXSP,2013-03-30 14:59:00,
2013-03-30 11:00:00,52.3,30.4,30.06,West,270,4.9,8.3,43,0.00,,,0.00,WUHU21623XXSP,2013-03-30 15:00:00,
2013-03-30 11:01:00,52.3,30.4,30.06,West,270,4.9,6.7,43,0.00,,,0.00,WUHU21623XXSP,2013-03-30 15:01:00,
2013-03-30 11:03:00,52.3,30.4,30.06,WNW,292,4.0,6.7,43,0.00,,,0.00,WUHU21623XXSP,2013-03-30 15:03:00,
2013-03-30 11:04:00,52.3,30.4,30.06,WNW,292,4.0,6.7,43,0.00,,,0.00,WUHU21623XXSP,2013-03-30 15:04:00,
2013-03-30 11:05:00,52.3,30.4,30.06,WNW,292,4.0,4.9,43,0.00,,,0.00,WUHU21623XXSP,2013-03-30 15:05:00,
2013-03-30 11:06:00,52.5,30.0,30.06,NNE,22,0.0,4.9,42,0.00,,,0.00,WUHU21623XXSP,2013-03-30 15:06:00,
2013-03-30 11:08:00,52.5,30.0,30.06,NW,315,2.0,4.9,42,0.00,,,0.00,WUHU21623XXSP,2013-03-30 15:08:00,
2013-03-30 11:11:00,52.5,30.0,30.06,West,270,2.7,4.0,42,0.00,,,0.00,WUHU21623XXSP,2013-03-30 15:11:00,
2013-03-30 11:12:00,52.5,30.0,30.06,West,270,2.7,4.0,42,0.00,,,0.00,WUHU21623XXSP,2013-03-30 15:12:00,
2013-03-30 11:13:00,52.7,30.1,30.06,West,270,3.4,4.0,42,0.00,,,0.00,WUHU21623XXSP,2013-03-30 15:13:00,
2013-03-30 11:16:00,52.7,30.1,30.06,West,270,3.4,3.4,42,0.00,,,0.00,WUHU21623XXSP,2013-03-30 15:16:00,
2013-03-30 11:17:00,52.7,30.1,30.06,West,270,3.4,3.4,42,0.00,,,0.00,WUHU21623XXSP,2013-03-30 15:17:00,
2013-03-30 11:18:00,52.7,30.1,30.06,West,270,3.4,3.4,42,0.00,,,0.00,WUHU21623XXSP,2013-03-30 15:18:00,
2013-03-30 11:19:00,52.7,30.1,30.06,SSE,157,0.0,3.4,42,0.00,,,0.00,WUHU21623XXSP,2013-03-30 15:19:00,
2013-03-30 11:22:00,52.9,29.8,30.05,West,270,5.4,5.4,41,0.00,,,0.00,WUHU21623XXSP,2013-03-30 15:22:00,
2013-03-30 11:23:00,53.2,30.1,30.05,West,270,8.9,8.9,41,0.00,,,0.00,WUHU21623XXSP,2013-03-30 15:23:00,
2013-03-30 11:24:00,53.2,30.1,30.05,West,270,8.9,8.9,41,0.00,,,0.00,WUHU21623XXSP,2013-03-30 15:24:00,
2013-03-30 11:26:00,53.2,29.9,30.05,West,270,2.0,2.0,41,0.00,,,0.00,WUHU21623XXSP,2013-03-30 15:26:00,
2013-03-30 11:27:00,53.2,30.1,30.05,West,270,2.0,8.9,41,0.00,,,0.00,WUHU21623XXSP,2013-03-30 15:27:00,
2013-03-30 11:28:00,53.4,30.1,30.05,West,270,2.0,8.9,41,0.00,,,0.00,WUHU21623XXSP,2013-03-30 15:28:00,
2013-03-30 11:29:00,53.4,30.1,30.05,West,270,2.0,8.9,41,0.00,,,0.00,WUHU21623XXSP,2013-03-30 15:29:00,
2013-03-30 11:32:00,54.0,30.7,30.05,West,270,3.4,8.9,41,0.00,,,0.00,WUHU21623XXSP,2013-03-30 15:32:00,
2013-03-30 11:33:00,54.0,30.7,30.05,West,270,3.4,3.4,41,0.00,,,0.00,WUHU21623XXSP,2013-03-30 15:33:00,
2013-03-30 11:34:00,54.1,30.3,30.06,NNW,337,3.1,3.4,40,0.00,,,0.00,WUHU21623XXSP,2013-03-30 15:34:00,
2013-03-30 11:37:00,54.1,30.3,30.05,West,270,2.2,3.4,40,0.00,,,0.00,WUHU21623XXSP,2013-03-30 15:37:00,
2013-03-30 11:38:00,54.3,30.5,30.05,North,0,2.5,3.4,40,0.00,,,0.00,WUHU21623XXSP,2013-03-30 15:38:00,
2013-03-30 11:39:00,54.3,30.5,30.05,North,0,2.5,3.4,40,0.00,,,0.00,WUHU21623XXSP,2013-03-30 15:39:00,
2013-03-30 11:42:00,54.3,30.5,30.05,NNE,22,0.0,3.1,40,0.00,,,0.00,WUHU21623XXSP,2013-03-30 15:42:00,
2013-03-30 11:43:00,54.3,30.5,30.05,NNE,22,0.0,3.1,40,0.00,,,0.00,WUHU21623XXSP,2013-03-30 15:43:00,
2013-03-30 11:44:00,54.3,30.5,30.05,NNE,22,0.0,2.5,40,0.00,,,0.00,WUHU21623XXSP,2013-03-30 15:44:00,
2013-03-30 11:48:00,55.0,30.4,30.05,WSW,247,2.9,2.9,39,0.00,,,0.00,WUHU21623XXSP,2013-03-30 15:48:00,
2013-03-30 11:49:00,55.2,30.6,30.05,West,270,5.1,5.1,39,0.00,,,0.00,WUHU21623XXSP,2013-03-30 15:49:00,
2013-03-30 11:53:00,55.4,29.9,30.04,West,270,3.8,5.1,37,0.00,,,0.00,WUHU21623XXSP,2013-03-30 15:53:00,
2013-03-30 11:54:00,55.4,29.9,30.04,West,270,3.8,5.1,37,0.00,,,0.00,WUHU21623XXSP,2013-03-30 15:54:00,
2013-03-30 11:55:00,55.4,29.9,30.04,West,270,3.8,5.1,37,0.00,,,0.00,WUHU21623XXSP,2013-03-30 15:55:00,
2013-03-30 11:58:00,55.4,29.4,30.04,West,270,2.5,6.0,37,0.00,,,0.00,WUHU21623XXSP,2013-03-30 15:58:00,
2013-03-30 11:59:00,55.4,29.4,30.04,West,270,2.5,6.0,37,0.00,,,0.00,WUHU21623XXSP,2013-03-30 15:59:00,
2013-03-30 12:00:00,55.6,29.5,30.04,West,270,0.7,6.0,37,0.00,,,0.00,WUHU21623XXSP,2013-03-30 16:00:00,
2013-03-30 12:03:00,55.6,29.5,30.04,WNW,292,1.1,6.0,37,0.00,,,0.00,WUHU21623XXSP,2013-03-30 16:03:00,
2013-03-30 12:04:00,56.1,30.0,30.04,SW,225,0.0,6.0,37,0.00,,,0.00,WUHU21623XXSP,2013-03-30 16:04:00,
2013-03-30 12:05:00,56.1,30.0,30.04,SW,225,0.0,2.5,37,0.00,,,0.00,WUHU21623XXSP,2013-03-30 16:05:00,
2013-03-30 12:08:00,56.5,30.2,30.04,NW,315,6.0,6.0,37,0.00,,,0.00,WUHU21623XXSP,2013-03-30 16:08:00,
2013-03-30 12:09:00,56.5,30.2,30.04,NW,315,6.0,6.0,37,0.00,,,0.00,WUHU21623XXSP,2013-03-30 16:09:00,
2013-03-30 12:12:00,56.5,29.6,30.04,NNW,337,3.8,6.0,36,0.00,,,0.00,WUHU21623XXSP,2013-03-30 16:12:00,
2013-03-30 12:13:00,56.5,29.6,30.04,NNE,22,1.3,6.0,36,0.00,,,0.00,WUHU21623XXSP,2013-03-30 16:13:00,
2013-03-30 12:14:00,56.5,29.6,30.04,NNE,22,1.3,6.0,36,0.00,,,0.00,WUHU21623XXSP,2013-03-30 16:14:00,
2013-03-30 12:17:00,56.5,30.3,30.04,SSE,157,1.6,6.0,37,0.00,,,0.00,WUHU21623XXSP,2013-03-30 16:17:00,
2013-03-30 12:18:00,56.5,30.3,30.04,SSE,157,1.6,3.8,37,0.00,,,0.00,WUHU21623XXSP,2013-03-30 16:18:00,
2013-03-30 12:19:00,56.5,30.3,30.03,SSE,157,1.6,3.8,36,0.00,,,0.00,WUHU21623XXSP,2013-03-30 16:19:00,
2013-03-30 12:20:00,56.5,30.3,30.03,SSE,157,1.6,3.8,36,0.00,,,0.00,WUHU21623XXSP,2013-03-30 16:20:00,
2013-03-30 12:22:00,56.3,29.6,30.04,West,270,2.5,2.5,36,0.00,,,0.00,WUHU21623XXSP,2013-03-30 16:22:00,
2013-03-30 12:24:00,56.3,29.5,30.04,West,270,0.7,2.5,36,0.00,,,0.00,WUHU21623XXSP,2013-03-30 16:24:00,
2013-03-30 12:25:00,56.3,29.5,30.04,West,270,0.7,2.5,36,0.00,,,0.00,WUHU21623XXSP,2013-03-30 16:25:00,
2013-03-30 12:26:00,56.3,29.5,30.03,West,270,0.7,0.7,36,0.00,,,0.00,WUHU21623XXSP,2013-03-30 16:26:00,
2013-03-30 12:27:00,56.3,29.5,30.04,West,270,0.7,2.5,36,0.00,,,0.00,WUHU21623XXSP,2013-03-30 16:27:00,
2013-03-30 12:29:00,56.3,29.5,30.04,WSW,247,10.3,10.3,36,0.00,,,0.00,WUHU21623XXSP,2013-03-30 16:29:00,
2013-03-30 12:30:00,56.3,29.5,30.04,North,0,3.4,10.3,36,0.00,,,0.00,WUHU21623XXSP,2013-03-30 16:30:00,
2013-03-30 12:32:00,56.5,29.6,30.04,NW,315,4.0,10.3,36,0.00,,,0.00,WUHU21623XXSP,2013-03-30 16:32:00,
2013-03-30 12:34:00,56.8,29.9,30.04,West,270,3.1,10.3,36,0.00,,,0.00,WUHU21623XXSP,2013-03-30 16:34:00,
2013-03-30 12:35:00,56.8,29.9,30.04,West,270,3.1,10.3,36,0.00,,,0.00,WUHU21623XXSP,2013-03-30 16:35:00,
2013-03-30 12:37:00,56.8,29.9,30.04,WNW,292,3.4,10.3,36,0.00,,,0.00,WUHU21623XXSP,2013-03-30 16:37:00,
2013-03-30 12:39:00,57.0,29.9,30.04,West,270,1.3,4.0,36,0.00,,,0.00,WUHU21623XXSP,2013-03-30 16:39:00,
2013-03-30 12:40:00,57.0,30.1,30.04,WNW,292,2.0,4.0,35,0.00,,,0.00,WUHU21623XXSP,2013-03-30 16:40:00,
2013-03-30 12:42:00,57.4,29.7,30.03,West,270,7.6,7.6,35,0.00,,,0.00,WUHU21623XXSP,2013-03-30 16:42:00,
2013-03-30 12:44:00,57.4,29.7,30.03,West,270,7.6,7.6,35,0.00,,,0.00,WUHU21623XXSP,2013-03-30 16:44:00,
2013-03-30 12:46:00,57.4,29.7,30.03,West,270,7.6,7.6,35,0.00,,,0.00,WUHU21623XXSP,2013-03-30 16:46:00,
2013-03-30 12:47:00,57.0,28.7,30.03,West,270,3.8,7.6,34,0.00,,,0.00,WUHU21623XXSP,2013-03-30 16:47:00,
2013-03-30 12:49:00,56.8,28.5,30.04,ENE,67,0.0,7.6,34,0.00,,,0.00,WUHU21623XXSP,2013-03-30 16:49:00,
2013-03-30 12:51:00,56.5,28.2,30.03,NW,315,1.8,7.6,34,0.00,,,0.00,WUHU21623XXSP,2013-03-30 16:51:00,
2013-03-30 12:52:00,56.5,28.2,30.03,NW,315,1.8,7.6,34,0.00,,,0.00,WUHU21623XXSP,2013-03-30 16:52:00,
2013-03-30 12:54:00,56.5,28.2,30.03,NW,315,1.8,7.6,34,0.00,,,0.00,WUHU21623XXSP,2013-03-30 16:54:00,
2013-03-30 12:56:00,56.5,28.2,30.03,South,180,0.0,1.8,34,0.00,,,0.00,WUHU21623XXSP,2013-03-30 16:56:00,
2013-03-30 12:57:00,56.8,28.2,30.03,WSW,247,2.0,2.0,34,0.00,,,0.00,WUHU21623XXSP,2013-03-30 16:57:00,
2013-03-30 12:59:00,57.0,28.7,30.03,WNW,292,5.6,5.6,34,0.00,,,0.00,WUHU21623XXSP,2013-03-30 16:59:00,
2013-03-30 13:00:00,57.0,28.7,30.03,WNW,292,5.6,5.6,34,0.00,,,0.00,WUHU21623XXSP,2013-03-30 17:00:00,
2013-03-30 13:02:00,57.4,28.7,30.03,NW,315,6.7,6.7,34,0.00,,,0.00,WUHU21623XXSP,2013-03-30 17:02:00,
2013-03-30 13:04:00,57.4,29.0,30.03,NW,315,2.0,6.7,34,0.00,,,0.00,WUHU21623XXSP,2013-03-30 17:04:00,
2013-03-30 13:05:00,57.4,29.0,30.03,NW,315,2.0,6.7,34,0.00,,,0.00,WUHU21623XXSP,2013-03-30 17:05:00,
2013-03-30 13:07:00,57.6,29.2,30.03,NE,45,1.6,6.7,34,0.00,,,0.00,WUHU21623XXSP,2013-03-30 17:07:00,
2013-03-30 13:08:00,57.6,28.5,30.03,ENE,67,5.4,6.7,33,0.00,,,0.00,WUHU21623XXSP,2013-03-30 17:08:00,
2013-03-30 13:09:00,57.6,28.5,30.03,ENE,67,5.4,6.7,33,0.00,,,0.00,WUHU21623XXSP,2013-03-30 17:09:00,
2013-03-30 13:10:00,57.6,27.8,30.03,NE,45,3.8,6.7,32,0.00,,,0.00,WUHU21623XXSP,2013-03-30 17:10:00,
2013-03-30 13:12:00,57.6,27.8,30.03,NE,45,0.7,5.4,32,0.00,,,0.00,WUHU21623XXSP,2013-03-30 17:12:00,
2013-03-30 13:13:00,57.6,27.8,30.03,NE,45,0.7,5.4,32,0.00,,,0.00,WUHU21623XXSP,2013-03-30 17:13:00,
2013-03-30 13:15:00,57.7,28.7,30.02,SE,135,1.8,5.4,33,0.00,,,0.00,WUHU21623XXSP,2013-03-30 17:15:00,
2013-03-30 13:17:00,57.9,28.1,30.02,WNW,292,5.1,5.4,32,0.00,,,0.00,WUHU21623XXSP,2013-03-30 17:17:00,
2013-03-30 13:18:00,57.9,28.1,30.02,WNW,292,5.1,5.1,32,0.00,,,0.00,WUHU21623XXSP,2013-03-30 17:18:00,
2013-03-30 13:20:00,57.9,28.1,30.03,WNW,292,5.1,5.1,32,0.00,,,0.00,WUHU21623XXSP,2013-03-30 17:20:00,
2013-03-30 13:22:00,58.1,28.3,30.02,West,270,1.3,5.1,32,0.00,,,0.00,WUHU21623XXSP,2013-03-30 17:22:00,
2013-03-30 13:23:00,57.9,28.1,30.02,WNW,292,2.2,5.1,32,0.00,,,0.00,WUHU21623XXSP,2013-03-30 17:23:00,
2013-03-30 13:25:00,57.7,27.9,30.02,NW,315,5.1,5.1,32,0.00,,,0.00,WUHU21623XXSP,2013-03-30 17:25:00,
2013-03-30 13:26:00,57.7,27.9,30.02,NW,315,5.1,5.1,32,0.00,,,0.00,WUHU21623XXSP,2013-03-30 17:26:00,
2013-03-30 13:27:00,57.7,27.9,30.02,West,270,1.6,5.1,32,0.00,,,0.00,WUHU21623XXSP,2013-03-30 17:27:00,
2013-03-30 13:29:00,57.7,27.9,30.02,West,270,1.6,5.1,32,0.00,,,0.00,WUHU21623XXSP,2013-03-30 17:29:00,
2013-03-30 13:30:00,57.7,27.9,30.02,WSW,247,0.0,5.1,32,0.00,,,0.00,WUHU21623XXSP,2013-03-30 17:30:00,
2013-03-30 13:31:00,57.7,27.9,30.02,WSW,247,0.0,5.1,32,0.00,,,0.00,WUHU21623XXSP,2013-03-30 17:31:00,
2013-03-30 13:32:00,57.7,27.2,30.02,NW,315,4.5,5.1,31,0.00,,,0.00,WUHU21623XXSP,2013-03-30 17:32:00,
2013-03-30 13:34:00,57.9,27.4,30.02,ENE,67,2.9,5.1,31,0.00,,,0.00,WUHU21623XXSP,2013-03-30 17:34:00,
2013-03-30 13:35:00,57.9,27.4,30.02,ENE,67,2.9,4.5,31,0.00,,,0.00,WUHU21623XXSP,2013-03-30 17:35:00,
2013-03-30 13:36:00,57.9,27.4,30.02,West,270,6.3,6.3,31,0.00,,,0.00,WUHU21623XXSP,2013-03-30 17:36:00,
2013-03-30 13:38:00,58.1,27.6,30.01,North,0,0.0,6.3,31,0.00,,,0.00,WUHU21623XXSP,2013-03-30 17:38:00,
2013-03-30 13:39:00,58.1,27.6,30.01,North,0,0.0,6.3,31,0.00,,,0.00,WUHU21623XXSP,2013-03-30 17:39:00,
2013-03-30 13:40:00,58.1,28.3,30.02,West,270,4.5,6.3,32,0.00,,,0.00,WUHU21623XXSP,2013-03-30 17:40:00,
2013-03-30 13:41:00,58.1,28.3,30.02,West,270,4.5,6.3,32,0.00,,,0.00,WUHU21623XXSP,2013-03-30 17:41:00,
2013-03-30 13:43:00,58.3,27.7,30.01,WNW,292,2.7,6.3,31,0.00,,,0.00,WUHU21623XXSP,2013-03-30 17:43:00,
2013-03-30 13:44:00,58.6,28.8,30.01,West,270,3.1,6.3,32,0.00,,,0.00,WUHU21623XXSP,2013-03-30 17:44:00,
2013-03-30 13:46:00,58.6,28.8,30.01,West,270,3.1,4.5,32,0.00,,,0.00,WUHU21623XXSP,2013-03-30 17:46:00,
2013-03-30 13:48:00,58.8,28.8,30.01,West,270,3.1,4.5,33,0.00,,,0.00,WUHU21623XXSP,2013-03-30 17:48:00,
2013-03-30 13:49:00,58.8,28.2,30.01,West,270,4.0,4.5,31,0.00,,,0.00,WUHU21623XXSP,2013-03-30 17:49:00,
2013-03-30 13:51:00,59.2,28.5,30.01,WNW,292,4.5,4.5,31,0.00,,,0.00,WUHU21623XXSP,2013-03-30 17:51:00,
2013-03-30 13:52:00,59.2,28.5,30.01,WNW,292,4.5,4.5,31,0.00,,,0.00,WUHU21623XXSP,2013-03-30 17:52:00,
2013-03-30 13:53:00,59.2,28.5,30.01,North,0,3.1,4.5,31,0.00,,,0.00,WUHU21623XXSP,2013-03-30 17:53:00,
2013-03-30 13:55:00,59.2,28.5,30.01,North,0,3.1,4.5,31,0.00,,,0.00,WUHU21623XXSP,2013-03-30 17:55:00,
2013-03-30 13:56:00,59.2,27.8,30.01,WNW,292,2.7,4.5,30,0.00,,,0.00,WUHU21623XXSP,2013-03-30 17:56:00,
2013-03-30 13:57:00,59.0,27.7,30.02,WSW,247,1.1,4.5,30,0.00,,,0.00,WUHU21623XXSP,2013-03-30 17:57:00,
2013-03-30 13:58:00,59.0,27.7,30.02,WSW,247,1.1,4.5,30,0.00,,,0.00,WUHU21623XXSP,2013-03-30 17:58:00,
2013-03-30 14:00:00,58.8,27.5,30.01,NNW,337,5.4,5.4,30,0.00,,,0.00,WUHU21623XXSP,2013-03-30 18:00:00,
2013-03-30 14:01:00,58.8,27.5,30.01,North,0,0.0,5.4,30,0.00,,,0.00,WUHU21623XXSP,2013-03-30 18:01:00,
2013-03-30 14:02:00,58.8,27.5,30.01,North,0,0.0,5.4,30,0.00,,,0.00,WUHU21623XXSP,2013-03-30 18:02:00,
2013-03-30 14:03:00,58.8,27.5,30.01,North,0,0.0,5.4,30,0.00,,,0.00,WUHU21623XXSP,2013-03-30 18:03:00,
2013-03-30 14:05:00,58.8,27.5,30.01,NW,315,0.9,5.4,30,0.00,,,0.00,WUHU21623XXSP,2013-03-30 18:05:00,
2013-03-30 14:06:00,58.8,27.5,30.01,WNW,292,2.9,5.4,30,0.00,,,0.00,WUHU21623XXSP,2013-03-30 18:06:00,
2013-03-30 14:07:00,58.8,27.5,30.01,WNW,292,2.9,5.4,30,0.00,,,0.00,WUHU21623XXSP,2013-03-30 18:07:00,
2013-03-30 14:08:00,58.8,27.5,30.01,North,0,2.9,5.4,30,0.00,,,0.00,WUHU21623XXSP,2013-03-30 18:08:00,
2013-03-30 14:10:00,58.8,27.5,30.01,North,0,2.9,2.9,30,0.00,,,0.00,WUHU21623XXSP,2013-03-30 18:10:00,
2013-03-30 14:11:00,58.8,27.5,30.01,North,0,2.9,2.9,30,0.00,,,0.00,WUHU21623XXSP,2013-03-30 18:11:00,
2013-03-30 14:12:00,59.0,26.7,30.01,NW,315,0.0,2.9,29,0.00,,,0.00,WUHU21623XXSP,2013-03-30 18:12:00,
2013-03-30 14:13:00,59.0,26.7,30.01,NW,315,0.0,2.9,29,0.00,,,0.00,WUHU21623XXSP,2013-03-30 18:13:00,
2013-03-30 14:16:00,59.4,27.0,30.01,WNW,292,2.5,3.8,29,0.00,,,0.00,WUHU21623XXSP,2013-03-30 18:16:00,
2013-03-30 14:17:00,59.4,27.0,30.01,WNW,292,2.5,3.8,29,0.00,,,0.00,WUHU21623XXSP,2013-03-30 18:17:00,
2013-03-30 14:18:00,59.4,27.0,30.01,WNW,292,2.5,3.8,29,0.00,,,0.00,WUHU21623XXSP,2013-03-30 18:18:00,
2013-03-30 14:22:00,59.5,27.1,30.01,NNW,337,0.9,4.5,29,0.00,,,0.00,WUHU21623XXSP,2013-03-30 18:22:00,
2013-03-30 14:23:00,59.5,27.1,30.01,NW,315,6.3,6.3,29,0.00,,,0.00,WUHU21623XXSP,2013-03-30 18:23:00,
2013-03-30 14:26:00,59.5,27.0,30.01,NW,315,6.3,6.3,29,0.00,,,0.00,WUHU21623XXSP,2013-03-30 18:26:00,
2013-03-30 14:27:00,59.7,27.3,30.01,WSW,247,4.3,6.3,29,0.00,,,0.00,WUHU21623XXSP,2013-03-30 18:27:00,
2013-03-30 14:28:00,59.7,27.3,30.01,WSW,247,4.3,6.3,29,0.00,,,0.00,WUHU21623XXSP,2013-03-30 18:28:00,
2013-03-30 14:29:00,59.7,27.3,30.01,WSW,247,4.3,6.3,29,0.00,,,0.00,WUHU21623XXSP,2013-03-30 18:29:00,
2013-03-30 14:32:00,59.9,26.5,30.01,NNW,337,3.4,6.3,28,0.00,,,0.00,WUHU21623XXSP,2013-03-30 18:32:00,
2013-03-30 14:33:00,59.9,26.5,30.01,NNW,337,3.4,6.3,28,0.00,,,0.00,WUHU21623XXSP,2013-03-30 18:33:00,
2013-03-30 14:34:00,59.9,26.5,30.01,WNW,292,2.9,6.3,28,0.00,,,0.00,WUHU21623XXSP,2013-03-30 18:34:00,
2013-03-30 14:37:00,60.1,26.6,30.01,NNW,337,0.0,3.4,28,0.00,,,0.00,WUHU21623XXSP,2013-03-30 18:37:00,
2013-03-30 14:38:00,59.9,26.5,30.01,NNW,337,5.6,5.6,28,0.00,,,0.00,WUHU21623XXSP,2013-03-30 18:38:00,
2013-03-30 14:39:00,59.9,26.5,30.01,NNW,337,5.6,5.6,28,0.00,,,0.00,WUHU21623XXSP,2013-03-30 18:39:00,
2013-03-30 14:42:00,60.1,26.5,30.01,NNW,337,0.0,5.6,28,0.00,,,0.00,WUHU21623XXSP,2013-03-30 18:42:00,
2013-03-30 14:43:00,60.1,26.5,30.01,NNW,337,0.0,5.6,28,0.00,,,0.00,WUHU21623XXSP,2013-03-30 18:43:00,
2013-03-30 14:44:00,60.1,26.5,30.01,NNW,337,0.0,5.6,28,0.00,,,0.00,WUHU21623XXSP,2013-03-30 18:44:00,
2013-03-30 14:48:00,60.3,26.8,30.01,WNW,292,3.6,3.6,28,0.00,,,0.00,WUHU21623XXSP,2013-03-30 18:48:00,
2013-03-30 14:49:00,60.4,26.9,30.00,WNW,292,3.4,3.6,28,0.00,,,0.00,WUHU21623XXSP,2013-03-30 18:49:00,
2013-03-30 14:53:00,60.6,27.1,30.01,West,270,6.9,6.9,28,0.00,,,0.00,WUHU21623XXSP,2013-03-30 18:53:00,
2013-03-30 14:54:00,60.6,27.1,30.01,West,270,6.9,6.9,28,0.00,,,0.00,WUHU21623XXSP,2013-03-30 18:54:00,
2013-03-30 14:58:00,60.6,27.1,30.00,WSW,247,5.8,6.9,28,0.00,,,0.00,WUHU21623XXSP,2013-03-30 18:58:00,
2013-03-30 14:59:00,60.6,27.1,30.00,WSW,247,5.8,6.9,28,0.00,,,0.00,WUHU21623XXSP,2013-03-30 18:59:00,
2013-03-30 15:03:00,60.6,26.1,30.01,WSW,247,4.7,5.8,27,0.00,,,0.00,WUHU21623XXSP,2013-03-30 19:03:00,
2013-03-30 15:04:00,60.6,26.1,30.01,WSW,247,4.7,5.8,27,0.00,,,0.00,WUHU21623XXSP,2013-03-30 19:04:00,
2013-03-30 15:08:00,60.6,26.1,30.01,West,270,2.5,4.7,27,0.00,,,0.00,WUHU21623XXSP,2013-03-30 19:08:00,
2013-03-30 15:09:00,60.6,26.1,30.01,West,270,2.5,4.7,27,0.00,,,0.00,WUHU21623XXSP,2013-03-30 19:09:00,
2013-03-30 15:13:00,60.6,26.1,30.01,WNW,292,0.0,2.5,27,0.00,,,0.00,WUHU21623XXSP,2013-03-30 19:13:00,
2013-03-30 15:14:00,61.0,26.4,30.00,SSW,202,1.6,2.5,27,0.00,,,0.00,WUHU21623XXSP,2013-03-30 19:14:00,
2013-03-30 15:19:00,61.0,26.4,30.01,NNW,337,5.8,5.8,27,0.00,,,0.00,WUHU21623XXSP,2013-03-30 19:19:00,
2013-03-30 15:20:00,61.0,26.4,30.01,NNW,337,5.8,5.8,27,0.00,,,0.00,WUHU21623XXSP,2013-03-30 19:20:00,
2013-03-30 15:24:00,61.0,26.4,30.00,West,270,8.7,8.7,27,0.00,,,0.00,WUHU21623XXSP,2013-03-30 19:24:00,
2013-03-30 15:25:00,61.0,26.4,30.01,NW,315,1.6,8.7,27,0.00,,,0.00,WUHU21623XXSP,2013-03-30 19:25:00,
2013-03-30 15:26:00,61.0,26.6,30.01,NW,315,1.6,1.6,27,0.00,,,0.00,WUHU21623XXSP,2013-03-30 19:26:00,
2013-03-30 15:29:00,61.0,26.3,30.00,West,270,2.9,8.7,27,0.00,,,0.00,WUHU21623XXSP,2013-03-30 19:29:00,
2013-03-30 15:30:00,61.0,26.3,30.00,West,270,2.9,8.7,27,0.00,,,0.00,WUHU21623XXSP,2013-03-30 19:30:00,
2013-03-30 15:34:00,61.0,26.4,30.00,WSW,247,0.9,3.6,27,0.00,,,0.00,WUHU21623XXSP,2013-03-30 19:34:00,
2013-03-30 15:35:00,61.0,26.4,30.00,WSW,247,0.9,3.6,27,0.00,,,0.00,WUHU21623XXSP,2013-03-30 19:35:00,
2013-03-30 15:39:00,61.3,26.7,30.00,North,0,0.0,3.6,27,0.00,,,0.00,WUHU21623XXSP,2013-03-30 19:39:00,
2013-03-30 15:40:00,61.2,26.6,30.00,NNW,337,0.9,3.6,27,0.00,,,0.00,WUHU21623XXSP,2013-03-30 19:40:00,
2013-03-30 15:45:00,61.2,26.6,30.00,West,270,0.9,0.9,27,0.00,,,0.00,WUHU21623XXSP,2013-03-30 19:45:00,
2013-03-30 15:50:00,61.0,26.6,30.00,West,270,0.9,0.9,27,0.00,,,0.00,WUHU21623XXSP,2013-03-30 19:50:00,
2013-03-30 15:51:00,60.8,26.4,30.00,West,270,0.9,0.9,27,0.00,,,0.00,WUHU21623XXSP,2013-03-30 19:51:00,
2013-03-30 15:55:00,61.0,26.4,30.00,WNW,292,1.1,4.5,27,0.00,,,0.00,WUHU21623XXSP,2013-03-30 19:55:00,
2013-03-30 15:56:00,61.0,26.4,30.00,WNW,292,1.1,4.5,27,0.00,,,0.00,WUHU21623XXSP,2013-03-30 19:56:00,
2013-03-30 16:00:00,61.0,26.4,30.00,NNW,337,0.0,4.5,28,0.00,,,0.00,WUHU21623XXSP,2013-03-30 20:00:00,
2013-03-30 16:01:00,61.0,26.4,30.00,NNW,337,0.0,4.5,28,0.00,,,0.00,WUHU21623XXSP,2013-03-30 20:01:00,
2013-03-30 16:05:00,61.0,27.4,29.99,North,0,2.9,2.9,28,0.00,,,0.00,WUHU21623XXSP,2013-03-30 20:05:00,
2013-03-30 16:06:00,61.0,27.4,29.99,North,0,2.9,2.9,28,0.00,,,0.00,WUHU21623XXSP,2013-03-30 20:06:00,
2013-03-30 16:07:00,61.0,27.4,29.99,North,0,2.9,2.9,28,0.00,,,0.00,WUHU21623XXSP,2013-03-30 20:07:00,
2013-03-30 16:10:00,61.0,27.4,29.99,NW,315,6.9,6.9,28,0.00,,,0.00,WUHU21623XXSP,2013-03-30 20:10:00,
2013-03-30 16:11:00,61.0,27.4,29.99,NW,315,6.9,6.9,28,0.00,,,0.00,WUHU21623XXSP,2013-03-30 20:11:00,
2013-03-30 16:12:00,61.0,27.4,29.99,NW,315,6.9,6.9,28,0.00,,,0.00,WUHU21623XXSP,2013-03-30 20:12:00,
2013-03-30 16:15:00,61.0,27.4,29.99,NW,315,6.9,6.9,28,0.00,,,0.00,WUHU21623XXSP,2013-03-30 20:15:00,
2013-03-30 16:16:00,61.0,27.4,29.99,NW,315,6.9,6.9,28,0.00,,,0.00,WUHU21623XXSP,2013-03-30 20:16:00,
2013-03-30 16:17:00,61.0,27.4,30.00,NNW,337,5.4,6.9,28,0.00,,,0.00,WUHU21623XXSP,2013-03-30 20:17:00,
2013-03-30 16:20:00,61.0,27.4,30.00,SW,225,1.1,6.9,28,0.00,,,0.00,WUHU21623XXSP,2013-03-30 20:20:00,
2013-03-30 16:21:00,61.0,27.4,30.00,SW,225,1.1,6.9,28,0.00,,,0.00,WUHU21623XXSP,2013-03-30 20:21:00,
2013-03-30 16:22:00,61.0,27.4,30.00,SW,225,1.1,6.9,28,0.00,,,0.00,WUHU21623XXSP,2013-03-30 20:22:00,
2013-03-30 16:25:00,60.6,27.1,30.00,NW,315,1.3,5.4,28,0.00,,,0.00,WUHU21623XXSP,2013-03-30 20:25:00,
2013-03-30 16:26:00,60.6,27.1,30.00,NW,315,1.3,2.9,28,0.00,,,0.00,WUHU21623XXSP,2013-03-30 20:26:00,
2013-03-30 16:27:00,60.4,26.9,30.00,NNW,337,3.8,3.8,28,0.00,,,0.00,WUHU21623XXSP,2013-03-30 20:27:00,
2013-03-30 16:30:00,60.1,26.6,30.00,WNW,292,0.7,3.8,28,0.00,,,0.00,WUHU21623XXSP,2013-03-30 20:30:00,
2013-03-30 16:31:00,59.7,26.3,29.99,NNW,337,4.7,4.7,28,0.00,,,0.00,WUHU21623XXSP,2013-03-30 20:31:00,
2013-03-30 16:32:00,59.7,26.3,29.99,NNW,337,4.7,4.7,28,0.00,,,0.00,WUHU21623XXSP,2013-03-30 20:32:00,
2013-03-30 16:35:00,58.8,25.9,30.00,West,270,3.6,4.7,28,0.00,,,0.00,WUHU21623XXSP,2013-03-30 20:35:00,
2013-03-30 16:37:00,58.8,25.9,30.00,West,270,3.6,4.7,28,0.00,,,0.00,WUHU21623XXSP,2013-03-30 20:37:00,
2013-03-30 16:40:00,58.8,25.6,30.00,North,0,1.8,4.7,28,0.00,,,0.00,WUHU21623XXSP,2013-03-30 20:40:00,
2013-03-30 16:42:00,58.6,25.6,30.00,North,0,1.8,3.6,28,0.00,,,0.00,WUHU21623XXSP,2013-03-30 20:42:00,
2013-03-30 16:43:00,58.6,25.6,30.00,North,0,1.8,3.6,28,0.00,,,0.00,WUHU21623XXSP,2013-03-30 20:43:00,
2013-03-30 16:45:00,58.6,25.4,30.00,NNW,337,2.5,2.5,28,0.00,,,0.00,WUHU21623XXSP,2013-03-30 20:45:00,
2013-03-30 16:49:00,58.3,25.1,30.00,West,270,3.6,3.6,28,0.00,,,0.00,WUHU21623XXSP,2013-03-30 20:49:00,
2013-03-30 16:50:00,58.3,25.1,30.00,West,270,3.6,3.6,28,0.00,,,0.00,WUHU21623XXSP,2013-03-30 20:50:00,
2013-03-30 16:55:00,58.6,26.4,30.00,North,0,2.5,3.6,29,0.00,,,0.00,WUHU21623XXSP,2013-03-30 20:55:00,
2013-03-30 16:56:00,58.6,26.4,30.00,North,0,2.5,3.6,29,0.00,,,0.00,WUHU21623XXSP,2013-03-30 20:56:00,
2013-03-30 17:00:00,58.8,26.5,30.00,West,270,4.7,4.7,29,0.00,,,0.00,WUHU21623XXSP,2013-03-30 21:00:00,
2013-03-30 17:01:00,58.8,26.5,30.00,West,270,4.7,4.7,29,0.00,,,0.00,WUHU21623XXSP,2013-03-30 21:01:00,
2013-03-30 17:05:00,58.8,26.5,30.00,WSW,247,0.0,4.7,29,0.00,,,0.00,WUHU21623XXSP,2013-03-30 21:05:00,
2013-03-30 17:06:00,58.8,26.5,30.00,WSW,247,0.0,4.7,29,0.00,,,0.00,WUHU21623XXSP,2013-03-30 21:06:00,
2013-03-30 17:10:00,58.8,26.5,30.00,East,90,0.0,3.1,30,0.00,,,0.00,WUHU21623XXSP,2013-03-30 21:10:00,
2013-03-30 17:11:00,58.8,26.5,30.00,East,90,0.0,3.1,30,0.00,,,0.00,WUHU21623XXSP,2013-03-30 21:11:00,
2013-03-30 17:15:00,58.8,28.2,30.00,NE,45,0.0,2.0,32,0.00,,,0.00,WUHU21623XXSP,2013-03-30 21:15:00,
2013-03-30 17:16:00,58.8,28.2,30.00,NE,45,0.0,2.0,32,0.00,,,0.00,WUHU21623XXSP,2013-03-30 21:16:00,
2013-03-30 17:17:00,58.8,29.6,30.00,ENE,67,2.0,2.0,33,0.00,,,0.00,WUHU21623XXSP,2013-03-30 21:17:00,
2013-03-30 17:20:00,58.1,28.4,30.01,ENE,67,2.0,2.0,34,0.00,,,0.00,WUHU21623XXSP,2013-03-30 21:20:00,
2013-03-30 17:21:00,58.1,28.4,30.01,ENE,67,2.0,2.0,34,0.00,,,0.00,WUHU21623XXSP,2013-03-30 21:21:00,
2013-03-30 17:22:00,58.1,28.4,30.01,ENE,67,2.0,2.0,34,0.00,,,0.00,WUHU21623XXSP,2013-03-30 21:22:00,
2013-03-30 17:25:00,57.9,29.5,30.01,WNW,292,3.6,3.6,34,0.00,,,0.00,WUHU21623XXSP,2013-03-30 21:25:00,
2013-03-30 17:26:00,57.9,29.5,30.01,WNW,292,3.6,3.6,34,0.00,,,0.00,WUHU21623XXSP,2013-03-30 21:26:00,
2013-03-30 17:27:00,57.9,29.5,30.01,WNW,292,3.6,3.6,32,0.00,,,0.00,WUHU21623XXSP,2013-03-30 21:27:00,
2013-03-30 17:30:00,57.9,28.1,30.00,WNW,292,5.6,5.6,32,0.00,,,0.00,WUHU21623XXSP,2013-03-30 21:30:00,
2013-03-30 17:31:00,57.9,28.1,30.00,WNW,292,5.6,5.6,32,0.00,,,0.00,WUHU21623XXSP,2013-03-30 21:31:00,
2013-03-30 17:32:00,57.9,25.7,30.00,WSW,247,4.7,5.6,29,0.00,,,0.00,WUHU21623XXSP,2013-03-30 21:32:00,
2013-03-30 17:33:00,57.9,25.7,30.01,WNW,292,1.1,5.6,29,0.00,,,0.00,WUHU21623XXSP,2013-03-30 21:33:00,
2013-03-30 17:35:00,58.1,25.9,30.01,West,270,2.5,5.6,29,0.00,,,0.00,WUHU21623XXSP,2013-03-30 21:35:00,
2013-03-30 17:36:00,58.1,25.9,30.01,West,270,2.5,5.6,29,0.00,,,0.00,WUHU21623XXSP,2013-03-30 21:36:00,
2013-03-30 17:38:00,58.1,25.9,30.01,West,270,2.2,5.6,29,0.00,,,0.00,WUHU21623XXSP,2013-03-30 21:38:00,
2013-03-30 17:41:00,58.3,26.1,30.01,NNW,337,3.1,4.7,29,0.00,,,0.00,WUHU21623XXSP,2013-03-30 21:41:00,
2013-03-30 17:42:00,58.1,26.1,30.01,West,270,2.5,3.1,29,0.00,,,0.00,WUHU21623XXSP,2013-03-30 21:42:00,
2013-03-30 17:43:00,58.1,26.1,30.01,West,270,2.5,3.1,29,0.00,,,0.00,WUHU21623XXSP,2013-03-30 21:43:00,
2013-03-30 17:46:00,58.1,25.9,30.01,West,270,2.5,3.1,28,0.00,,,0.00,WUHU21623XXSP,2013-03-30 21:46:00,
2013-03-30 17:47:00,57.9,24.9,30.01,NW,315,3.8,3.8,28,0.00,,,0.00,WUHU21623XXSP,2013-03-30 21:47:00,
2013-03-30 17:48:00,57.9,24.8,30.01,West,270,1.1,3.8,28,0.00,,,0.00,WUHU21623XXSP,2013-03-30 21:48:00,
2013-03-30 17:51:00,57.9,24.8,30.01,NW,315,0.0,3.8,28,0.00,,,0.00,WUHU21623XXSP,2013-03-30 21:51:00,
2013-03-30 17:52:00,57.7,24.8,30.01,NW,315,0.0,3.8,28,0.00,,,0.00,WUHU21623XXSP,2013-03-30 21:52:00,
2013-03-30 17:53:00,57.7,24.8,30.01,NW,315,0.0,3.8,28,0.00,,,0.00,WUHU21623XXSP,2013-03-30 21:53:00,
2013-03-30 17:54:00,57.7,24.8,30.01,NW,315,0.0,3.8,28,0.00,,,0.00,WUHU21623XXSP,2013-03-30 21:54:00,
2013-03-30 17:56:00,57.7,24.6,30.01,NW,315,0.0,1.1,28,0.00,,,0.00,WUHU21623XXSP,2013-03-30 21:56:00,
2013-03-30 17:58:00,57.6,24.5,30.01,West,270,2.5,2.5,28,0.00,,,0.00,WUHU21623XXSP,2013-03-30 21:58:00,
2013-03-30 17:59:00,57.4,24.5,30.01,West,270,2.5,2.5,28,0.00,,,0.00,WUHU21623XXSP,2013-03-30 21:59:00,
2013-03-30 18:02:00,57.2,24.3,30.01,WNW,292,1.6,2.5,28,0.00,,,0.00,WUHU21623XXSP,2013-03-30 22:02:00,
2013-03-30 18:03:00,57.2,24.2,30.01,WNW,292,0.0,2.5,28,0.00,,,0.00,WUHU21623XXSP,2013-03-30 22:03:00,
2013-03-30 18:04:00,57.2,24.2,30.01,WNW,292,0.0,2.5,28,0.00,,,0.00,WUHU21623XXSP,2013-03-30 22:04:00,
2013-03-30 18:07:00,57.2,24.2,30.01,WNW,292,0.0,2.5,28,0.00,,,0.00,WUHU21623XXSP,2013-03-30 22:07:00,
2013-03-30 18:08:00,57.2,24.2,30.01,WNW,292,0.0,2.5,28,0.00,,,0.00,WUHU21623XXSP,2013-03-30 22:08:00,
2013-03-30 18:09:00,57.2,24.2,30.01,WNW,292,0.0,1.6,28,0.00,,,0.00,WUHU21623XXSP,2013-03-30 22:09:00,
2013-03-30 18:12:00,57.0,24.0,30.01,West,270,2.9,2.9,28,0.00,,,0.00,WUHU21623XXSP,2013-03-30 22:12:00,
2013-03-30 18:13:00,57.0,24.0,30.01,West,270,2.9,2.9,28,0.00,,,0.00,WUHU21623XXSP,2013-03-30 22:13:00,
2013-03-30 18:14:00,56.8,24.0,30.01,West,270,2.9,2.9,28,0.00,,,0.00,WUHU21623XXSP,2013-03-30 22:14:00,
2013-03-30 18:17:00,56.8,23.8,30.01,NW,315,0.0,2.9,28,0.00,,,0.00,WUHU21623XXSP,2013-03-30 22:17:00,
2013-03-30 18:18:00,56.8,24.8,30.01,West,270,3.6,3.6,29,0.00,,,0.00,WUHU21623XXSP,2013-03-30 22:18:00,
2013-03-30 18:19:00,56.8,24.8,30.01,West,270,3.6,3.6,29,0.00,,,0.00,WUHU21623XXSP,2013-03-30 22:19:00,
2013-03-30 18:22:00,56.5,24.5,30.01,WSW,247,6.7,6.7,28,0.00,,,0.00,WUHU21623XXSP,2013-03-30 22:22:00,
2013-03-30 18:23:00,56.5,24.5,30.01,WSW,247,6.7,6.7,28,0.00,,,0.00,WUHU21623XXSP,2013-03-30 22:23:00,
2013-03-30 18:24:00,56.5,24.5,30.01,WSW,247,6.7,6.7,28,0.00,,,0.00,WUHU21623XXSP,2013-03-30 22:24:00,
2013-03-30 18:26:00,56.5,23.6,30.01,West,270,1.8,1.8,28,0.00,,,0.00,WUHU21623XXSP,2013-03-30 22:26:00,
2013-03-30 18:27:00,56.1,23.5,30.01,WNW,292,0.0,6.7,28,0.00,,,0.00,WUHU21623XXSP,2013-03-30 22:27:00,
2013-03-30 18:29:00,56.1,24.1,30.02,WSW,247,2.5,6.7,29,0.00,,,0.00,WUHU21623XXSP,2013-03-30 22:29:00,
2013-03-30 18:32:00,55.9,24.1,30.02,WSW,247,2.5,2.5,28,0.00,,,0.00,WUHU21623XXSP,2013-03-30 22:32:00,
2013-03-30 18:34:00,55.9,23.0,30.02,NW,315,2.2,2.5,28,0.00,,,0.00,WUHU21623XXSP,2013-03-30 22:34:00,
2013-03-30 18:35:00,55.9,23.0,30.02,NW,315,2.2,2.5,28,0.00,,,0.00,WUHU21623XXSP,2013-03-30 22:35:00,
2013-03-30 18:38:00,55.6,22.7,30.02,West,270,2.2,2.5,28,0.00,,,0.00,WUHU21623XXSP,2013-03-30 22:38:00,
2013-03-30 18:39:00,55.6,22.7,30.02,West,270,2.2,2.5,28,0.00,,,0.00,WUHU21623XXSP,2013-03-30 22:39:00,
2013-03-30 18:40:00,55.6,22.7,30.02,West,270,2.2,2.5,28,0.00,,,0.00,WUHU21623XXSP,2013-03-30 22:40:00,
2013-03-30 18:43:00,55.4,23.5,30.02,North,0,0.0,2.2,29,0.00,,,0.00,WUHU21623XXSP,2013-03-30 22:43:00,
2013-03-30 18:44:00,55.4,23.5,30.02,North,0,0.0,2.2,29,0.00,,,0.00,WUHU21623XXSP,2013-03-30 22:44:00,
2013-03-30 18:45:00,55.4,23.5,30.02,North,0,0.0,2.2,29,0.00,,,0.00,WUHU21623XXSP,2013-03-30 22:45:00,
2013-03-30 18:48:00,55.2,23.5,30.03,North,0,0.0,2.2,29,0.00,,,0.00,WUHU21623XXSP,2013-03-30 22:48:00,
2013-03-30 18:49:00,55.2,23.3,30.03,North,0,0.0,2.2,28,0.00,,,0.00,WUHU21623XXSP,2013-03-30 22:49:00,
2013-03-30 18:50:00,55.2,23.3,30.03,North,0,0.0,0.0,28,0.00,,,0.00,WUHU21623XXSP,2013-03-30 22:50:00,
2013-03-30 18:53:00,55.0,22.4,30.03,West,270,8.9,8.9,28,0.00,,,0.00,WUHU21623XXSP,2013-03-30 22:53:00,
2013-03-30 18:54:00,55.0,22.4,30.03,West,270,8.9,8.9,28,0.00,,,0.00,WUHU21623XXSP,2013-03-30 22:54:00,
2013-03-30 18:55:00,54.7,22.3,30.03,West,270,8.9,8.9,28,0.00,,,0.00,WUHU21623XXSP,2013-03-30 22:55:00,
2013-03-30 18:58:00,54.7,22.0,30.03,North,0,2.0,8.9,28,0.00,,,0.00,WUHU21623XXSP,2013-03-30 22:58:00,
2013-03-30 18:59:00,54.5,21.8,30.03,West,270,1.1,8.9,28,0.00,,,0.00,WUHU21623XXSP,2013-03-30 22:59:00,
2013-03-30 19:00:00,54.5,21.8,30.03,West,270,1.1,8.9,28,0.00,,,0.00,WUHU21623XXSP,2013-03-30 23:00:00,
2013-03-30 19:03:00,54.5,22.8,30.03,NNW,337,0.0,8.9,29,0.00,,,0.00,WUHU21623XXSP,2013-03-30 23:03:00,
2013-03-30 19:04:00,54.5,22.8,30.03,NNW,337,0.0,8.9,29,0.00,,,0.00,WUHU21623XXSP,2013-03-30 23:04:00,
2013-03-30 19:05:00,54.1,22.5,30.03,WSW,247,0.0,2.0,29,0.00,,,0.00,WUHU21623XXSP,2013-03-30 23:05:00,
2013-03-30 19:09:00,54.1,22.5,30.03,West,270,0.0,1.1,29,0.00,,,0.00,WUHU21623XXSP,2013-03-30 23:09:00,
2013-03-30 19:10:00,54.1,22.5,30.03,West,270,0.0,1.1,29,0.00,,,0.00,WUHU21623XXSP,2013-03-30 23:10:00,
2013-03-30 19:14:00,53.8,22.2,30.03,NW,315,0.0,0.0,29,0.00,,,0.00,WUHU21623XXSP,2013-03-30 23:14:00,
2013-03-30 19:17:00,53.4,21.9,30.03,NNW,337,0.0,0.0,29,0.00,,,0.00,WUHU21623XXSP,2013-03-30 23:17:00,
2013-03-30 19:19:00,53.4,21.9,30.03,NNW,337,0.0,0.0,29,0.00,,,0.00,WUHU21623XXSP,2013-03-30 23:19:00,
2013-03-30 19:22:00,53.2,22.7,30.03,West,270,0.0,0.0,30,0.00,,,0.00,WUHU21623XXSP,2013-03-30 23:22:00,
2013-03-30 19:24:00,53.2,22.7,30.04,NNE,22,0.0,0.0,30,0.00,,,0.00,WUHU21623XXSP,2013-03-30 23:24:00,
2013-03-30 19:26:00,53.1,22.2,30.03,NNE,23,0.0,0.0,30,0.00,,,0.00,WUHU21623XXSP,2013-03-30 23:26:00,
2013-03-30 19:27:00,52.9,22.4,30.04,NNE,22,0.0,0.0,30,0.00,,,0.00,WUHU21623XXSP,2013-03-30 23:27:00,
2013-03-30 19:29:00,52.7,22.2,30.04,NNE,22,0.0,0.0,30,0.00,,,0.00,WUHU21623XXSP,2013-03-30 23:29:00,
2013-03-30 19:32:00,52.3,22.2,30.04,NNE,22,0.0,0.0,31,0.00,,,0.00,WUHU21623XXSP,2013-03-30 23:32:00,
2013-03-30 19:33:00,52.2,23.1,30.04,East,90,0.0,0.0,32,0.00,,,0.00,WUHU21623XXSP,2013-03-30 23:33:00,
2013-03-30 19:34:00,52.2,23.1,30.04,East,90,0.0,0.0,32,0.00,,,0.00,WUHU21623XXSP,2013-03-30 23:34:00,
2013-03-30 19:38:00,51.6,23.3,30.04,East,90,0.0,0.0,33,0.00,,,0.00,WUHU21623XXSP,2013-03-30 23:38:00,
2013-03-30 19:39:00,51.6,23.3,30.04,East,90,0.0,0.0,33,0.00,,,0.00,WUHU21623XXSP,2013-03-30 23:39:00,
2013-03-30 19:43:00,51.4,23.8,30.04,East,90,0.0,0.0,34,0.00,,,0.00,WUHU21623XXSP,2013-03-30 23:43:00,
2013-03-30 19:44:00,51.1,23.8,30.04,East,90,0.0,0.0,34,0.00,,,0.00,WUHU21623XXSP,2013-03-30 23:44:00,
2013-03-30 19:45:00,51.1,23.8,30.04,East,90,0.0,0.0,34,0.00,,,0.00,WUHU21623XXSP,2013-03-30 23:45:00,
2013-03-30 19:48:00,50.7,23.8,30.04,East,90,0.0,0.0,35,0.00,,,0.00,WUHU21623XXSP,2013-03-30 23:48:00,
2013-03-30 19:49:00,50.7,23.8,30.04,East,90,0.0,0.0,35,0.00,,,0.00,WUHU21623XXSP,2013-03-30 23:49:00,
2013-03-30 19:50:00,50.7,23.8,30.05,East,90,0.0,0.0,35,0.00,,,0.00,WUHU21623XXSP,2013-03-30 23:50:00,
2013-03-30 19:53:00,50.2,24.0,30.05,East,90,0.0,0.0,36,0.00,,,0.00,WUHU21623XXSP,2013-03-30 23:53:00,
2013-03-30 19:54:00,49.8,23.7,30.05,East,90,0.0,0.0,36,0.00,,,0.00,WUHU21623XXSP,2013-03-30 23:54:00,
2013-03-30 19:55:00,49.8,23.7,30.05,East,90,0.0,0.0,36,0.00,,,0.00,WUHU21623XXSP,2013-03-30 23:55:00,
2013-03-30 19:58:00,49.8,23.7,30.05,East,90,0.0,0.0,37,0.00,,,0.00,WUHU21623XXSP,2013-03-30 23:58:00,
2013-03-30 19:59:00,49.6,24.2,30.05,East,90,0.0,0.0,37,0.00,,,0.00,WUHU21623XXSP,2013-03-30 23:59:00,
2013-03-30 20:00:00,49.6,24.2,30.05,East,90,0.0,0.0,37,0.00,,,0.00,WUHU21623XXSP,2013-03-31 00:00:00,
2013-03-30 20:03:00,49.1,24.4,30.05,East,90,0.0,0.0,38,0.00,,,0.00,WUHU21623XXSP,2013-03-31 00:03:00,
2013-03-30 20:04:00,49.1,24.4,30.05,East,90,0.0,0.0,38,0.00,,,0.00,WUHU21623XXSP,2013-03-31 00:04:00,
2013-03-30 20:05:00,48.9,24.3,30.05,East,90,0.0,0.0,38,0.00,,,0.00,WUHU21623XXSP,2013-03-31 00:05:00,
2013-03-30 20:09:00,48.7,24.3,30.05,East,90,0.0,0.0,38,0.00,,,0.00,WUHU21623XXSP,2013-03-31 00:09:00,
2013-03-30 20:10:00,48.4,24.1,30.05,East,90,0.0,0.0,40,0.00,,,0.00,WUHU21623XXSP,2013-03-31 00:10:00,
2013-03-30 20:14:00,48.0,24.8,30.06,East,90,0.0,0.0,40,0.00,,,0.00,WUHU21623XXSP,2013-03-31 00:14:00,
2013-03-30 20:15:00,48.0,24.8,30.06,East,90,0.0,0.0,40,0.00,,,0.00,WUHU21623XXSP,2013-03-31 00:15:00,
2013-03-30 20:19:00,47.8,25.2,30.06,East,90,0.0,0.0,41,0.00,,,0.00,WUHU21623XXSP,2013-03-31 00:19:00,
2013-03-30 20:20:00,47.5,24.9,30.06,East,90,0.0,0.0,41,0.00,,,0.00,WUHU21623XXSP,2013-03-31 00:20:00,
2013-03-30 20:24:00,47.1,25.1,30.06,East,90,0.0,0.0,42,0.00,,,0.00,WUHU21623XXSP,2013-03-31 00:24:00,
2013-03-30 20:25:00,47.1,25.1,30.06,East,90,0.0,0.0,42,0.00,,,0.00,WUHU21623XXSP,2013-03-31 00:25:00,
2013-03-30 20:26:00,47.1,25.0,30.06,East,90,0.0,0.0,42,0.00,,,0.00,WUHU21623XXSP,2013-03-31 00:26:00,
2013-03-30 20:29:00,46.8,25.3,30.06,East,90,0.0,0.0,43,0.00,,,0.00,WUHU21623XXSP,2013-03-31 00:29:00,
2013-03-30 20:30:00,46.8,25.3,30.06,East,90,0.0,0.0,43,0.00,,,0.00,WUHU21623XXSP,2013-03-31 00:30:00,
2013-03-30 20:34:00,46.2,24.8,30.06,East,90,0.0,0.0,43,0.00,,,0.00,WUHU21623XXSP,2013-03-31 00:34:00,
2013-03-30 20:35:00,46.0,24.8,30.06,East,90,0.0,0.0,43,0.00,,,0.00,WUHU21623XXSP,2013-03-31 00:35:00,
2013-03-30 20:36:00,46.0,24.8,30.06,East,90,0.0,0.0,43,0.00,,,0.00,WUHU21623XXSP,2013-03-31 00:36:00,
2013-03-30 20:39:00,45.7,24.7,30.07,East,90,0.0,0.0,45,0.00,,,0.00,WUHU21623XXSP,2013-03-31 00:39:00,
2013-03-30 20:40:00,45.7,24.7,30.07,East,90,0.0,0.0,45,0.00,,,0.00,WUHU21623XXSP,2013-03-31 00:40:00,
2013-03-30 20:41:00,45.7,24.7,30.07,East,90,0.0,0.0,45,0.00,,,0.00,WUHU21623XXSP,2013-03-31 00:41:00,
2013-03-30 20:44:00,45.5,25.3,30.06,East,90,0.0,0.0,45,0.00,,,0.00,WUHU21623XXSP,2013-03-31 00:44:00,
2013-03-30 20:45:00,45.5,25.3,30.06,East,90,0.0,0.0,45,0.00,,,0.00,WUHU21623XXSP,2013-03-31 00:45:00,
2013-03-30 20:47:00,45.5,25.3,30.07,East,90,0.0,0.0,45,0.00,,,0.00,WUHU21623XXSP,2013-03-31 00:47:00,
2013-03-30 20:50:00,45.5,25.3,30.07,East,90,0.0,0.0,46,0.00,,,0.00,WUHU21623XXSP,2013-03-31 00:50:00,
2013-03-30 20:52:00,45.0,25.3,30.07,East,90,0.0,0.0,46,0.00,,,0.00,WUHU21623XXSP,2013-03-31 00:52:00,
2013-03-30 20:55:00,44.8,25.1,30.07,East,90,0.0,0.0,46,0.00,,,0.00,WUHU21623XXSP,2013-03-31 00:55:00,
2013-03-30 20:57:00,44.6,25.1,30.07,East,90,0.0,0.0,46,0.00,,,0.00,WUHU21623XXSP,2013-03-31 00:57:00,
2013-03-30 21:00:00,44.4,25.0,30.07,East,90,0.0,0.0,46,0.00,,,0.00,WUHU21623XXSP,2013-03-31 01:00:00,
2013-03-30 21:02:00,44.4,25.4,30.07,East,90,0.0,0.0,47,0.00,,,0.00,WUHU21623XXSP,2013-03-31 01:02:00,
2013-03-30 21:05:00,44.2,25.4,30.07,East,90,0.0,0.0,47,0.00,,,0.00,WUHU21623XXSP,2013-03-31 01:05:00,
2013-03-30 21:07:00,44.1,25.6,30.07,East,90,0.0,0.0,48,0.00,,,0.00,WUHU21623XXSP,2013-03-31 01:07:00,
2013-03-30 21:08:00,44.1,25.6,30.07,East,90,0.0,0.0,48,0.00,,,0.00,WUHU21623XXSP,2013-03-31 01:08:00,
2013-03-30 21:10:00,43.9,25.4,30.07,East,90,0.0,0.0,48,0.00,,,0.00,WUHU21623XXSP,2013-03-31 01:10:00,
2013-03-30 21:11:00,43.9,25.4,30.07,East,90,0.0,0.0,48,0.00,,,0.00,WUHU21623XXSP,2013-03-31 01:11:00,
2013-03-30 21:12:00,43.7,25.4,30.07,East,90,0.0,0.0,49,0.00,,,0.00,WUHU21623XXSP,2013-03-31 01:12:00,
2013-03-30 21:13:00,43.7,25.4,30.07,East,90,0.0,0.0,49,0.00,,,0.00,WUHU21623XXSP,2013-03-31 01:13:00,
2013-03-30 21:15:00,43.7,25.8,30.08,East,90,0.0,0.0,49,0.00,,,0.00,WUHU21623XXSP,2013-03-31 01:15:00,
2013-03-30 21:16:00,43.3,25.5,30.08,East,90,0.0,0.0,49,0.00,,,0.00,WUHU21623XXSP,2013-03-31 01:16:00,
2013-03-30 21:18:00,43.3,25.5,30.08,East,90,0.0,0.0,49,0.00,,,0.00,WUHU21623XXSP,2013-03-31 01:18:00,
2013-03-30 21:21:00,43.2,25.8,30.08,East,90,0.0,0.0,50,0.00,,,0.00,WUHU21623XXSP,2013-03-31 01:21:00,
2013-03-30 21:23:00,43.0,25.7,30.08,East,90,0.0,0.0,50,0.00,,,0.00,WUHU21623XXSP,2013-03-31 01:23:00,
2013-03-30 21:26:00,43.0,26.1,30.08,East,90,0.0,0.0,51,0.00,,,0.00,WUHU21623XXSP,2013-03-31 01:26:00,
2013-03-30 21:28:00,43.0,26.1,30.08,East,90,0.0,0.0,51,0.00,,,0.00,WUHU21623XXSP,2013-03-31 01:28:00,
2013-03-30 21:31:00,42.6,25.8,30.08,East,90,0.0,0.0,51,0.00,,,0.00,WUHU21623XXSP,2013-03-31 01:31:00,
2013-03-30 21:33:00,42.4,25.6,30.08,East,90,0.0,0.0,51,0.00,,,0.00,WUHU21623XXSP,2013-03-31 01:33:00,
2013-03-30 21:37:00,42.4,25.6,30.08,East,90,0.0,0.0,51,0.00,,,0.00,WUHU21623XXSP,2013-03-31 01:37:00,
2013-03-30 21:38:00,42.4,25.6,30.08,East,90,0.0,0.0,51,0.00,,,0.00,WUHU21623XXSP,2013-03-31 01:38:00,
2013-03-30 21:42:00,42.1,25.7,30.08,East,90,0.0,0.0,52,0.00,,,0.00,WUHU21623XXSP,2013-03-31 01:42:00,
2013-03-30 21:44:00,41.9,25.7,30.08,East,90,0.0,0.0,52,0.00,,,0.00,WUHU21623XXSP,2013-03-31 01:44:00,
2013-03-30 21:47:00,41.9,25.5,30.08,East,90,0.0,0.0,52,0.00,,,0.00,WUHU21623XXSP,2013-03-31 01:47:00,
2013-03-30 21:49:00,41.7,25.8,30.08,East,90,0.0,0.0,53,0.00,,,0.00,WUHU21623XXSP,2013-03-31 01:49:00,
2013-03-30 21:52:00,41.7,25.8,30.09,East,90,0.0,0.0,53,0.00,,,0.00,WUHU21623XXSP,2013-03-31 01:52:00,
2013-03-30 21:54:00,41.7,25.8,30.09,East,90,0.0,0.0,53,0.00,,,0.00,WUHU21623XXSP,2013-03-31 01:54:00,
2013-03-30 21:57:00,41.5,26.0,30.09,East,90,0.0,0.0,54,0.00,,,0.00,WUHU21623XXSP,2013-03-31 01:57:00,
2013-03-30 21:59:00,41.5,26.0,30.09,East,90,0.0,0.0,54,0.00,,,0.00,WUHU21623XXSP,2013-03-31 01:59:00,
2013-03-30 22:02:00,41.5,26.0,30.09,East,90,0.0,0.0,54,0.00,,,0.00,WUHU21623XXSP,2013-03-31 02:02:00,
2013-03-30 22:03:00,41.5,26.0,30.09,East,90,0.0,0.0,54,0.00,,,0.00,WUHU21623XXSP,2013-03-31 02:03:00,
2013-03-30 22:04:00,41.5,26.0,30.09,East,90,0.0,0.0,54,0.00,,,0.00,WUHU21623XXSP,2013-03-31 02:04:00,
2013-03-30 22:07:00,41.2,25.7,30.09,East,90,0.0,0.0,55,0.00,,,0.00,WUHU21623XXSP,2013-03-31 02:07:00,
2013-03-30 22:08:00,41.2,25.7,30.09,East,90,0.0,0.0,55,0.00,,,0.00,WUHU21623XXSP,2013-03-31 02:08:00,
2013-03-30 22:09:00,41.0,26.1,30.09,East,90,0.0,0.0,55,0.00,,,0.00,WUHU21623XXSP,2013-03-31 02:09:00,
2013-03-30 22:10:00,41.0,26.1,30.09,East,90,0.0,0.0,55,0.00,,,0.00,WUHU21623XXSP,2013-03-31 02:10:00,
2013-03-30 22:13:00,40.8,26.0,30.09,East,90,0.0,0.0,55,0.00,,,0.00,WUHU21623XXSP,2013-03-31 02:13:00,
2013-03-30 22:14:00,40.8,26.0,30.09,East,90,0.0,0.0,55,0.00,,,0.00,WUHU21623XXSP,2013-03-31 02:14:00,
2013-03-30 22:15:00,40.8,26.0,30.09,East,90,0.0,0.0,55,0.00,,,0.00,WUHU21623XXSP,2013-03-31 02:15:00,
2013-03-30 22:19:00,40.6,25.8,30.09,East,90,0.0,0.0,55,0.00,,,0.00,WUHU21623XXSP,2013-03-31 02:19:00,
2013-03-30 22:20:00,40.6,26.1,30.09,East,90,0.0,0.0,56,0.00,,,0.00,WUHU21623XXSP,2013-03-31 02:20:00,
2013-03-30 22:24:00,40.5,26.1,30.09,East,90,0.0,0.0,56,0.00,,,0.00,WUHU21623XXSP,2013-03-31 02:24:00,
2013-03-30 22:25:00,40.5,25.9,30.09,East,90,0.0,0.0,56,0.00,,,0.00,WUHU21623XXSP,2013-03-31 02:25:00,
2013-03-30 22:26:00,40.5,26.1,30.09,East,90,0.0,0.0,56,0.00,,,0.00,WUHU21623XXSP,2013-03-31 02:26:00,
2013-03-30 22:29:00,40.5,25.9,30.09,East,90,0.0,0.0,56,0.00,,,0.00,WUHU21623XXSP,2013-03-31 02:29:00,
2013-03-30 22:30:00,40.5,25.9,30.09,East,90,0.0,0.0,56,0.00,,,0.00,WUHU21623XXSP,2013-03-31 02:30:00,
2013-03-30 22:34:00,40.1,26.0,30.09,East,90,0.0,0.0,57,0.00,,,0.00,WUHU21623XXSP,2013-03-31 02:34:00,
2013-03-30 22:35:00,40.1,26.0,30.09,East,90,0.0,0.0,57,0.00,,,0.00,WUHU21623XXSP,2013-03-31 02:35:00,
2013-03-30 22:40:00,39.9,25.8,30.09,East,90,0.0,0.0,57,0.00,,,0.00,WUHU21623XXSP,2013-03-31 02:40:00,
2013-03-30 22:41:00,39.9,25.8,30.09,East,90,0.0,0.0,57,0.00,,,0.00,WUHU21623XXSP,2013-03-31 02:41:00,
2013-03-30 22:45:00,39.9,25.8,30.09,East,90,0.0,0.0,57,0.00,,,0.00,WUHU21623XXSP,2013-03-31 02:45:00,
2013-03-30 22:47:00,39.6,25.5,30.09,East,90,0.0,0.0,57,0.00,,,0.00,WUHU21623XXSP,2013-03-31 02:47:00,
2013-03-30 22:50:00,39.6,25.5,30.09,East,90,0.0,0.0,57,0.00,,,0.00,WUHU21623XXSP,2013-03-31 02:50:00,
2013-03-30 22:52:00,39.6,25.5,30.09,East,90,0.0,0.0,57,0.00,,,0.00,WUHU21623XXSP,2013-03-31 02:52:00,
2013-03-30 22:55:00,39.4,25.3,30.09,East,90,0.0,0.0,57,0.00,,,0.00,WUHU21623XXSP,2013-03-31 02:55:00,
2013-03-30 22:57:00,39.4,25.3,30.09,East,90,0.0,0.0,57,0.00,,,0.00,WUHU21623XXSP,2013-03-31 02:57:00,
2013-03-30 23:00:00,39.0,25.3,30.09,East,90,0.0,0.0,57,0.00,,,0.00,WUHU21623XXSP,2013-03-31 03:00:00,
2013-03-30 23:01:00,39.0,25.0,30.09,East,90,0.0,0.0,57,0.00,,,0.00,WUHU21623XXSP,2013-03-31 03:01:00,
2013-03-30 23:02:00,39.0,25.0,30.09,East,90,0.0,0.0,57,0.00,,,0.00,WUHU21623XXSP,2013-03-31 03:02:00,
2013-03-30 23:05:00,39.0,25.4,30.09,East,90,0.0,0.0,58,0.00,,,0.00,WUHU21623XXSP,2013-03-31 03:05:00,
2013-03-30 23:06:00,39.0,25.4,30.09,East,90,0.0,0.0,58,0.00,,,0.00,WUHU21623XXSP,2013-03-31 03:06:00,
2013-03-30 23:07:00,39.0,25.4,30.09,East,90,0.0,0.0,58,0.00,,,0.00,WUHU21623XXSP,2013-03-31 03:07:00,
2013-03-30 23:10:00,39.0,25.4,30.09,East,90,0.0,0.0,58,0.00,,,0.00,WUHU21623XXSP,2013-03-31 03:10:00,
2013-03-30 23:11:00,39.0,25.4,30.09,East,90,0.0,0.0,58,0.00,,,0.00,WUHU21623XXSP,2013-03-31 03:11:00,
2013-03-30 23:13:00,38.8,25.2,30.09,East,90,0.0,0.0,58,0.00,,,0.00,WUHU21623XXSP,2013-03-31 03:13:00,
2013-03-30 23:15:00,38.8,25.2,30.09,East,90,0.0,0.0,58,0.00,,,0.00,WUHU21623XXSP,2013-03-31 03:15:00,
2013-03-30 23:16:00,38.8,25.2,30.09,East,90,0.0,0.0,58,0.00,,,0.00,WUHU21623XXSP,2013-03-31 03:16:00,
2013-03-30 23:18:00,38.5,24.9,30.09,East,90,0.0,0.0,58,0.00,,,0.00,WUHU21623XXSP,2013-03-31 03:18:00,
2013-03-30 23:20:00,38.5,25.3,30.09,East,90,0.0,0.0,59,0.00,,,0.00,WUHU21623XXSP,2013-03-31 03:20:00,
2013-03-30 23:22:00,38.5,25.3,30.09,East,90,0.0,0.0,59,0.00,,,0.00,WUHU21623XXSP,2013-03-31 03:22:00,
2013-03-30 23:23:00,38.5,25.3,30.09,East,90,0.0,0.0,59,0.00,,,0.00,WUHU21623XXSP,2013-03-31 03:23:00,
2013-03-30 23:25:00,38.5,25.3,30.09,East,90,0.0,0.0,59,0.00,,,0.00,WUHU21623XXSP,2013-03-31 03:25:00,
2013-03-30 23:26:00,38.5,25.3,30.09,East,90,0.0,0.0,59,0.00,,,0.00,WUHU21623XXSP,2013-03-31 03:26:00,
2013-03-30 23:27:00,38.3,25.3,30.09,East,90,0.0,0.0,59,0.00,,,0.00,WUHU21623XXSP,2013-03-31 03:27:00,
2013-03-30 23:29:00,38.3,25.2,30.09,East,90,0.0,0.0,59,0.00,,,0.00,WUHU21623XXSP,2013-03-31 03:29:00,
2013-03-30 23:30:00,38.3,25.2,30.09,East,90,0.0,0.0,59,0.00,,,0.00,WUHU21623XXSP,2013-03-31 03:30:00,
2013-03-30 23:31:00,38.1,25.2,30.09,East,90,0.0,0.0,59,0.00,,,0.00,WUHU21623XXSP,2013-03-31 03:31:00,
2013-03-30 23:32:00,38.1,25.2,30.09,East,90,0.0,0.0,59,0.00,,,0.00,WUHU21623XXSP,2013-03-31 03:32:00,
2013-03-30 23:34:00,38.1,25.0,30.10,East,90,0.0,0.0,59,0.00,,,0.00,WUHU21623XXSP,2013-03-31 03:34:00,
2013-03-30 23:36:00,37.9,25.0,30.10,East,90,0.0,0.0,59,0.00,,,0.00,WUHU21623XXSP,2013-03-31 03:36:00,
2013-03-30 23:37:00,37.9,25.0,30.10,East,90,0.0,0.0,59,0.00,,,0.00,WUHU21623XXSP,2013-03-31 03:37:00,
2013-03-30 23:39:00,37.9,24.9,30.10,East,90,0.0,0.0,59,0.00,,,0.00,WUHU21623XXSP,2013-03-31 03:39:00,
2013-03-30 23:41:00,37.9,24.9,30.10,East,90,0.0,0.0,59,0.00,,,0.00,WUHU21623XXSP,2013-03-31 03:41:00,
2013-03-30 23:42:00,37.9,24.9,30.10,East,90,0.0,0.0,59,0.00,,,0.00,WUHU21623XXSP,2013-03-31 03:42:00,
2013-03-30 23:44:00,37.6,24.5,30.10,East,90,0.0,0.0,59,0.00,,,0.00,WUHU21623XXSP,2013-03-31 03:44:00,
2013-03-30 23:46:00,37.6,24.5,30.10,East,90,0.0,0.0,59,0.00,,,0.00,WUHU21623XXSP,2013-03-31 03:46:00,
2013-03-30 23:47:00,37.6,24.5,30.10,East,90,0.0,0.0,59,0.00,,,0.00,WUHU21623XXSP,2013-03-31 03:47:00,
2013-03-30 23:49:00,37.6,24.5,30.10,East,90,0.0,0.0,59,0.00,,,0.00,WUHU21623XXSP,2013-03-31 03:49:00,
2013-03-30 23:51:00,37.4,24.5,30.09,East,90,0.0,0.0,59,0.00,,,0.00,WUHU21623XXSP,2013-03-31 03:51:00,
2013-03-30 23:52:00,37.4,24.8,30.10,East,90,0.0,0.0,60,0.00,,,0.00,WUHU21623XXSP,2013-03-31 03:52:00,
2013-03-30 23:53:00,37.4,24.8,30.10,East,90,0.0,0.0,60,0.00,,,0.00,WUHU21623XXSP,2013-03-31 03:53:00,
2013-03-30 23:54:00,37.4,24.8,30.09,East,90,0.0,0.0,60,0.00,,,0.00,WUHU21623XXSP,2013-03-31 03:54:00,
2013-03-30 23:57:00,37.4,24.8,30.10,East,90,0.0,0.0,60,0.00,,,0.00,WUHU21623XXSP,2013-03-31 03:57:00,
2013-03-30 23:58:00,37.4,24.8,30.10,East,90,0.0,0.0,60,0.00,,,0.00,WUHU21623XXSP,2013-03-31 03:58:00,